Wetterdaten: Donnerstag, 01.09.2016
Datum Zeit Temp. Aussen Temp. o. S. +5cm Feuchte Auss BlattFeu 1 Luftdruck Regen Sonnenschein Regendauer Solar Windben Empfang
01.09.2016 00:00 16,8 C 15,6 C 13,3 C 85 % 3 lf 1019,8 hPa 0,0 l/m 0 min 0 min 1 W/m 0,0 km/h (0 Bft) 95,74 %
01.09.2016 00:02 16,7 C 15,6 C 13,3 C 85 % 3 lf 1019,8 hPa 0,0 l/m 0 min 0 min 0 W/m 0,0 km/h (0 Bft) 95,00 %
01.09.2016 00:05 16,7 C 15,0 C 13,3 C 86 % 3 lf 1019,9 hPa 0,0 l/m 0 min 0 min 0 W/m 0,0 km/h (0 Bft) 98,57 %
01.09.2016 00:06 16,7 C 15,0 C 13,3 C 86 % 3 lf 1019,9 hPa 0,0 l/m 0 min 0 min 0 W/m 0,0 km/h (0 Bft) 95,65 %
01.09.2016 00:08 16,7 C 15,0 C 13,3 C 86 % 3 lf 1019,9 hPa 0,0 l/m 0 min 0 min 0 W/m 0,0 km/h (0 Bft) 100,00 %
01.09.2016 00:10 16,6 C 15,0 C 13,3 C 86 % 3 lf 1019,9 hPa 0,0 l/m 0 min 0 min 0 W/m 0,0 km/h (0 Bft) 100,00 %
01.09.2016 00:12 16,6 C 15,0 C 13,3 C 86 % 3 lf 1019,9 hPa 0,0 l/m 0 min 0 min 0 W/m 0,0 km/h (0 Bft) 100,00 %
01.09.2016 00:14 16,6 C 15,0 C 13,3 C 86 % 3 lf 1020,0 hPa 0,0 l/m 0 min 0 min 0 W/m 0,0 km/h (0 Bft) 100,00 %
01.09.2016 00:16 16,6 C 15,0 C 13,3 C 86 % 3 lf 1020,0 hPa 0,0 l/m 0 min 0 min 0 W/m 12,6 km/h (3 Bft) 93,48 %
01.09.2016 00:18 16,5 C 15,0 C 13,3 C 87 % 2 lf 1020,0 hPa 0,0 l/m 0 min 0 min 0 W/m 8,4 km/h (2 Bft) 95,74 %
01.09.2016 00:20 16,4 C 15,0 C 13,3 C 87 % 2 lf 1020,0 hPa 0,0 l/m 0 min 0 min 0 W/m 4,2 km/h (1 Bft) 97,87 %
01.09.2016 00:22 16,4 C 15,0 C 13,3 C 87 % 2 lf 1020,1 hPa 0,0 l/m 0 min 0 min 0 W/m 6,3 km/h (2 Bft) 97,87 %
01.09.2016 00:24 16,4 C 14,4 C 13,3 C 87 % 2 lf 1020,0 hPa 0,0 l/m 0 min 0 min 0 W/m 4,2 km/h (1 Bft) 97,87 %
01.09.2016 00:26 16,3 C 14,4 C 13,3 C 87 % 2 lf 1020,1 hPa 0,0 l/m 0 min 0 min 0 W/m 2,1 km/h (1 Bft) 97,87 %
01.09.2016 00:28 16,3 C 14,4 C 13,3 C 87 % 2 lf 1020,0 hPa 0,0 l/m 0 min 0 min 0 W/m 2,1 km/h (1 Bft) 97,83 %
01.09.2016 00:30 16,2 C 14,4 C 13,3 C 87 % 2 lf 1020,0 hPa 0,0 l/m 0 min 0 min 0 W/m 0,0 km/h (0 Bft) 97,87 %
01.09.2016 00:32 16,2 C 14,4 C 12,8 C 87 % 2 lf 1020,0 hPa 0,0 l/m 0 min 0 min 0 W/m 0,0 km/h (0 Bft) 94,34 %
01.09.2016 00:34 16,2 C 14,4 C 12,8 C 87 % 2 lf 1020,0 hPa 0,0 l/m 0 min 0 min 0 W/m 0,0 km/h (0 Bft) 97,87 %
01.09.2016 00:36 16,1 C 14,4 C 12,8 C 87 % 2 lf 1020,0 hPa 0,0 l/m 0 min 0 min 0 W/m 0,0 km/h (0 Bft) 97,37 %
01.09.2016 00:38 16,1 C 14,4 C 12,8 C 87 % 2 lf 1020,0 hPa 0,0 l/m 0 min 0 min 0 W/m 0,0 km/h (0 Bft) 97,87 %
01.09.2016 00:40 16,1 C 14,4 C 12,8 C 87 % 2 lf 1020,0 hPa 0,0 l/m 0 min 0 min 0 W/m 0,0 km/h (0 Bft) 93,48 %
01.09.2016 00:42 16,0 C 14,4 C 12,8 C 87 % 2 lf 1019,9 hPa 0,0 l/m 0 min 0 min 0 W/m 0,0 km/h (0 Bft) 91,49 %
01.09.2016 00:44 16,0 C 14,4 C 12,8 C 87 % 2 lf 1020,0 hPa 0,0 l/m 0 min 0 min 0 W/m 4,2 km/h (1 Bft) 89,36 %
01.09.2016 00:46 15,9 C 14,4 C 13,3 C 87 % 2 lf 1020,0 hPa 0,0 l/m 0 min 0 min 0 W/m 2,1 km/h (1 Bft) 89,36 %
01.09.2016 00:48 15,9 C 14,4 C 12,8 C 87 % 2 lf 1020,0 hPa 0,0 l/m 0 min 0 min 0 W/m 0,0 km/h (0 Bft) 93,62 %
01.09.2016 00:50 15,9 C 14,4 C 12,8 C 87 % 2 lf 1020,0 hPa 0,0 l/m 0 min 0 min 0 W/m 0,0 km/h (0 Bft) 91,49 %
01.09.2016 00:52 15,8 C 14,4 C 12,8 C 87 % 2 lf 1020,0 hPa 0,0 l/m 0 min 0 min 0 W/m 0,0 km/h (0 Bft) 93,48 %
01.09.2016 00:54 15,8 C 14,4 C 12,8 C 87 % 2 lf 1020,1 hPa 0,0 l/m 0 min 0 min 0 W/m 2,1 km/h (1 Bft) 95,74 %
01.09.2016 00:56 15,8 C 14,4 C 12,8 C 87 % 2 lf 1020,1 hPa 0,0 l/m 0 min 0 min 0 W/m 0,0 km/h (0 Bft) 91,49 %
01.09.2016 00:58 15,8 C 14,4 C 12,8 C 87 % 2 lf 1020,2 hPa 0,0 l/m 0 min 0 min 0 W/m 0,0 km/h (0 Bft) 93,62 %
01.09.2016 01:00 15,7 C 14,4 C 12,8 C 87 % 2 lf 1020,1 hPa 0,0 l/m 0 min 0 min 0 W/m 0,0 km/h (0 Bft) 93,62 %
01.09.2016 01:02 15,7 C 14,4 C 12,8 C 87 % 2 lf 1020,1 hPa 0,0 l/m 0 min 0 min 0 W/m 0,0 km/h (0 Bft) 93,75 %
01.09.2016 01:04 15,7 C 14,4 C 12,8 C 87 % 2 lf 1020,1 hPa 0,0 l/m 0 min 0 min 0 W/m 0,0 km/h (0 Bft) 91,30 %
01.09.2016 01:06 15,7 C 14,4 C 12,8 C 87 % 2 lf 1020,3 hPa 0,0 l/m 0 min 0 min 0 W/m 0,0 km/h (0 Bft) 95,74 %
01.09.2016 01:08 15,6 C 14,4 C 12,8 C 87 % 2 lf 1020,2 hPa 0,0 l/m 0 min 0 min 0 W/m 0,0 km/h (0 Bft) 91,49 %
01.09.2016 01:10 15,6 C 14,4 C 12,8 C 87 % 2 lf 1020,2 hPa 0,0 l/m 0 min 0 min 0 W/m 4,2 km/h (1 Bft) 95,74 %
01.09.2016 01:12 15,6 C 14,4 C 12,8 C 87 % 2 lf 1020,3 hPa 0,0 l/m 0 min 0 min 0 W/m 2,1 km/h (1 Bft) 97,87 %
01.09.2016 01:14 15,6 C 14,4 C 12,8 C 87 % 2 lf 1020,2 hPa 0,0 l/m 0 min 0 min 0 W/m 4,2 km/h (1 Bft) 93,62 %
01.09.2016 01:16 15,6 C 14,4 C 12,8 C 87 % 2 lf 1020,2 hPa 0,0 l/m 0 min 0 min 0 W/m 4,2 km/h (1 Bft) 95,65 %
01.09.2016 01:18 15,5 C 14,4 C 12,8 C 87 % 2 lf 1020,2 hPa 0,0 l/m 0 min 0 min 0 W/m 4,2 km/h (1 Bft) 95,74 %
01.09.2016 01:20 15,5 C 14,4 C 12,8 C 87 % 2 lf 1020,2 hPa 0,0 l/m 0 min 0 min 0 W/m 2,1 km/h (1 Bft) 93,62 %
01.09.2016 01:22 15,4 C 14,4 C 12,8 C 87 % 2 lf 1020,2 hPa 0,0 l/m 0 min 0 min 0 W/m 2,1 km/h (1 Bft) 91,49 %
01.09.2016 01:24 15,4 C 14,4 C 12,8 C 87 % 2 lf 1020,3 hPa 0,0 l/m 0 min 0 min 0 W/m 0,0 km/h (0 Bft) 91,49 %
01.09.2016 01:26 15,4 C 14,4 C 12,8 C 87 % 2 lf 1020,3 hPa 0,0 l/m 0 min 0 min 0 W/m 0,0 km/h (0 Bft) 95,65 %
01.09.2016 01:28 15,4 C 14,4 C 12,8 C 87 % 2 lf 1020,2 hPa 0,0 l/m 0 min 0 min 0 W/m 2,1 km/h (1 Bft) 93,62 %
01.09.2016 01:30 15,4 C 14,4 C 12,8 C 87 % 2 lf 1020,2 hPa 0,0 l/m 0 min 0 min 0 W/m 2,1 km/h (1 Bft) 95,74 %
01.09.2016 01:32 15,4 C 14,4 C 12,8 C 87 % 2 lf 1020,2 hPa 0,0 l/m 0 min 0 min 0 W/m 0,0 km/h (0 Bft) 95,83 %
01.09.2016 01:34 15,4 C 14,4 C 12,8 C 87 % 2 lf 1020,3 hPa 0,0 l/m 0 min 0 min 0 W/m 2,1 km/h (1 Bft) 93,62 %
01.09.2016 01:36 15,3 C 14,4 C 12,8 C 87 % 2 lf 1020,3 hPa 0,0 l/m 0 min 0 min 0 W/m 2,1 km/h (1 Bft) 95,74 %
01.09.2016 01:38 15,3 C 14,4 C 12,8 C 87 % 2 lf 1020,3 hPa 0,0 l/m 0 min 0 min 0 W/m 6,3 km/h (2 Bft) 95,65 %
01.09.2016 01:40 15,3 C 14,4 C 12,8 C 87 % 2 lf 1020,4 hPa 0,0 l/m 0 min 0 min 0 W/m 6,3 km/h (2 Bft) 95,74 %
01.09.2016 01:42 15,3 C 14,4 C 12,8 C 88 % 2 lf 1020,4 hPa 0,0 l/m 0 min 0 min 0 W/m 6,3 km/h (2 Bft) 91,67 %
01.09.2016 01:44 15,3 C 14,4 C 12,8 C 88 % 2 lf 1020,3 hPa 0,0 l/m 0 min 0 min 0 W/m 4,2 km/h (1 Bft) 93,62 %
01.09.2016 01:46 15,3 C 14,4 C 12,8 C 88 % 2 lf 1020,4 hPa 0,0 l/m 0 min 0 min 0 W/m 2,1 km/h (1 Bft) 93,62 %
01.09.2016 01:48 15,3 C 14,4 C 12,8 C 88 % 2 lf 1020,3 hPa 0,0 l/m 0 min 0 min 0 W/m 4,2 km/h (1 Bft) 95,74 %
01.09.2016 01:50 15,2 C 14,4 C 12,8 C 88 % 2 lf 1020,3 hPa 0,0 l/m 0 min 0 min 0 W/m 2,1 km/h (1 Bft) 95,65 %
01.09.2016 01:52 15,2 C 14,4 C 12,8 C 88 % 2 lf 1020,3 hPa 0,0 l/m 0 min 0 min 0 W/m 4,2 km/h (1 Bft) 97,87 %
01.09.2016 01:54 15,2 C 14,4 C 12,8 C 88 % 2 lf 1020,3 hPa 0,0 l/m 0 min 0 min 0 W/m 2,1 km/h (1 Bft) 93,62 %
01.09.2016 01:56 15,2 C 14,4 C 12,8 C 88 % 2 lf 1020,3 hPa 0,0 l/m 0 min 0 min 0 W/m 0,0 km/h (0 Bft) 93,62 %
01.09.2016 01:58 15,2 C 14,4 C 12,8 C 88 % 2 lf 1020,2 hPa 0,0 l/m 0 min 0 min 0 W/m 0,0 km/h (0 Bft) 93,62 %
01.09.2016 02:00 15,2 C 14,4 C 12,8 C 88 % 2 lf 1020,2 hPa 0,0 l/m 0 min 0 min 0 W/m 2,1 km/h (1 Bft) 93,62 %
01.09.2016 02:02 15,2 C 14,4 C 12,8 C 88 % 2 lf 1020,2 hPa 0,0 l/m 0 min 0 min 0 W/m 0,0 km/h (0 Bft) 93,48 %
01.09.2016 02:04 15,2 C 14,4 C 12,8 C 88 % 2 lf 1020,2 hPa 0,0 l/m 0 min 0 min 0 W/m 0,0 km/h (0 Bft) 93,62 %
01.09.2016 02:06 15,1 C 14,4 C 12,8 C 88 % 2 lf 1020,3 hPa 0,0 l/m 0 min 0 min 0 W/m 0,0 km/h (0 Bft) 95,74 %
01.09.2016 02:08 15,1 C 14,4 C 12,8 C 88 % 2 lf 1020,3 hPa 0,0 l/m 0 min 0 min 0 W/m 2,1 km/h (1 Bft) 100,00 %
01.09.2016 02:10 15,1 C 13,9 C 12,8 C 88 % 2 lf 1020,3 hPa 0,0 l/m 0 min 0 min 0 W/m 4,2 km/h (1 Bft) 97,87 %
01.09.2016 02:12 15,1 C 13,9 C 12,2 C 88 % 2 lf 1020,3 hPa 0,0 l/m 0 min 0 min 0 W/m 6,3 km/h (2 Bft) 95,74 %
01.09.2016 02:14 15,1 C 13,9 C 12,2 C 88 % 2 lf 1020,3 hPa 0,0 l/m 0 min 0 min 0 W/m 6,3 km/h (2 Bft) 93,48 %
01.09.2016 02:16 15,1 C 13,9 C 12,8 C 88 % 2 lf 1020,3 hPa 0,0 l/m 0 min 0 min 0 W/m 6,3 km/h (2 Bft) 91,49 %
01.09.2016 02:18 15,1 C 14,4 C 12,8 C 88 % 2 lf 1020,4 hPa 0,0 l/m 0 min 0 min 0 W/m 6,3 km/h (2 Bft) 97,87 %
01.09.2016 02:20 15,0 C 14,4 C 12,8 C 89 % 2 lf 1020,3 hPa 0,0 l/m 0 min 0 min 0 W/m 4,2 km/h (1 Bft) 95,74 %
01.09.2016 02:22 15,0 C 14,4 C 12,8 C 89 % 2 lf 1020,4 hPa 0,0 l/m 0 min 0 min 0 W/m 6,3 km/h (2 Bft) 97,87 %
01.09.2016 02:24 15,0 C 14,4 C 12,8 C 89 % 2 lf 1020,4 hPa 0,0 l/m 0 min 0 min 0 W/m 6,3 km/h (2 Bft) 97,83 %
01.09.2016 02:26 14,9 C 14,4 C 12,8 C 89 % 2 lf 1020,3 hPa 0,0 l/m 0 min 0 min 0 W/m 6,3 km/h (2 Bft) 97,87 %
01.09.2016 02:28 14,9 C 14,4 C 12,8 C 89 % 2 lf 1020,4 hPa 0,0 l/m 0 min 0 min 0 W/m 4,2 km/h (1 Bft) 97,87 %
01.09.2016 02:30 14,9 C 14,4 C 12,8 C 89 % 2 lf 1020,3 hPa 0,0 l/m 0 min 0 min 0 W/m 6,3 km/h (2 Bft) 97,87 %
01.09.2016 02:32 14,9 C 14,4 C 12,8 C 89 % 2 lf 1020,3 hPa 0,0 l/m 0 min 0 min 0 W/m 6,3 km/h (2 Bft) 95,74 %
01.09.2016 02:34 14,9 C 14,4 C 12,8 C 89 % 2 lf 1020,3 hPa 0,0 l/m 0 min 0 min 0 W/m 4,2 km/h (1 Bft) 95,74 %
01.09.2016 02:36 14,9 C 14,4 C 12,8 C 90 % 2 lf 1020,3 hPa 0,0 l/m 0 min 0 min 0 W/m 6,3 km/h (2 Bft) 95,74 %
01.09.2016 02:38 14,9 C 14,4 C 12,8 C 90 % 2 lf 1020,3 hPa 0,0 l/m 0 min 0 min 0 W/m 4,2 km/h (1 Bft) 97,83 %
01.09.2016 02:40 14,9 C 14,4 C 12,8 C 90 % 2 lf 1020,3 hPa 0,0 l/m 0 min 0 min 0 W/m 6,3 km/h (2 Bft) 95,74 %
01.09.2016 02:42 14,9 C 14,4 C 12,8 C 90 % 2 lf 1020,4 hPa 0,0 l/m 0 min 0 min 0 W/m 6,3 km/h (2 Bft) 95,74 %
01.09.2016 02:44 14,9 C 14,4 C 12,8 C 90 % 2 lf 1020,3 hPa 0,0 l/m 0 min 0 min 0 W/m 4,2 km/h (1 Bft) 95,74 %
01.09.2016 02:46 14,9 C 14,4 C 12,8 C 90 % 2 lf 1020,3 hPa 0,0 l/m 0 min 0 min 0 W/m 6,3 km/h (2 Bft) 100,00 %
01.09.2016 02:48 14,9 C 14,4 C 12,8 C 90 % 2 lf 1020,2 hPa 0,0 l/m 0 min 0 min 0 W/m 4,2 km/h (1 Bft) 100,00 %
01.09.2016 02:50 14,9 C 14,4 C 12,8 C 90 % 2 lf 1020,2 hPa 0,0 l/m 0 min 0 min 0 W/m 4,2 km/h (1 Bft) 100,00 %
01.09.2016 02:52 14,9 C 14,4 C 12,8 C 90 % 2 lf 1020,3 hPa 0,0 l/m 0 min 0 min 0 W/m 2,1 km/h (1 Bft) 100,00 %
01.09.2016 02:54 14,9 C 14,4 C 12,8 C 90 % 2 lf 1020,2 hPa 0,0 l/m 0 min 0 min 0 W/m 2,1 km/h (1 Bft) 100,00 %
01.09.2016 02:56 14,9 C 14,4 C 12,8 C 90 % 2 lf 1020,3 hPa 0,0 l/m 0 min 0 min 0 W/m 4,2 km/h (1 Bft) 93,62 %
01.09.2016 02:58 14,9 C 14,4 C 12,8 C 90 % 2 lf 1020,3 hPa 0,0 l/m 0 min 0 min 0 W/m 6,3 km/h (2 Bft) 100,00 %
01.09.2016 03:00 14,9 C 14,4 C 12,8 C 90 % 2 lf 1020,3 hPa 0,0 l/m 0 min 0 min 0 W/m 4,2 km/h (1 Bft) 97,83 %
01.09.2016 03:02 14,9 C 13,9 C 12,2 C 90 % 2 lf 1020,3 hPa 0,0 l/m 0 min 0 min 0 W/m 6,3 km/h (2 Bft) 100,00 %
01.09.2016 03:04 14,9 C 13,9 C 12,8 C 90 % 2 lf 1020,3 hPa 0,0 l/m 0 min 0 min 0 W/m 4,2 km/h (1 Bft) 100,00 %
01.09.2016 03:06 14,9 C 13,9 C 12,2 C 90 % 2 lf 1020,4 hPa 0,0 l/m 0 min 0 min 0 W/m 6,3 km/h (2 Bft) 95,74 %
01.09.2016 03:08 14,9 C 14,4 C 12,8 C 90 % 2 lf 1020,5 hPa 0,0 l/m 0 min 0 min 0 W/m 6,3 km/h (2 Bft) 97,87 %
01.09.2016 03:10 14,9 C 14,4 C 12,8 C 90 % 2 lf 1020,5 hPa 0,0 l/m 0 min 0 min 0 W/m 4,2 km/h (1 Bft) 100,00 %
01.09.2016 03:12 14,9 C 14,4 C 12,8 C 90 % 2 lf 1020,3 hPa 0,0 l/m 0 min 0 min 0 W/m 6,3 km/h (2 Bft) 100,00 %
01.09.2016 03:14 14,9 C 14,4 C 12,2 C 90 % 2 lf 1020,5 hPa 0,0 l/m 0 min 0 min 0 W/m 6,3 km/h (2 Bft) 100,00 %
01.09.2016 03:16 14,9 C 14,4 C 12,2 C 90 % 2 lf 1020,6 hPa 0,0 l/m 0 min 0 min 0 W/m 6,3 km/h (2 Bft) 100,00 %
01.09.2016 03:18 14,9 C 14,4 C 12,8 C 90 % 2 lf 1020,6 hPa 0,0 l/m 0 min 0 min 0 W/m 6,3 km/h (2 Bft) 97,87 %
01.09.2016 03:20 14,9 C 14,4 C 12,8 C 90 % 2 lf 1020,6 hPa 0,0 l/m 0 min 0 min 0 W/m 4,2 km/h (1 Bft) 100,00 %
01.09.2016 03:22 14,8 C 14,4 C 12,8 C 90 % 2 lf 1020,7 hPa 0,0 l/m 0 min 0 min 0 W/m 0,0 km/h (0 Bft) 91,30 %
01.09.2016 03:24 14,8 C 14,4 C 12,8 C 90 % 2 lf 1020,7 hPa 0,0 l/m 0 min 0 min 0 W/m 6,3 km/h (2 Bft) 100,00 %
01.09.2016 03:26 14,8 C 14,4 C 12,8 C 90 % 2 lf 1020,7 hPa 0,0 l/m 0 min 0 min 0 W/m 6,3 km/h (2 Bft) 95,74 %
01.09.2016 03:28 14,8 C 14,4 C 12,8 C 90 % 2 lf 1020,7 hPa 0,0 l/m 0 min 0 min 0 W/m 4,2 km/h (1 Bft) 97,87 %
01.09.2016 03:30 14,8 C 14,4 C 12,8 C 90 % 2 lf 1020,6 hPa 0,0 l/m 0 min 0 min 0 W/m 6,3 km/h (2 Bft) 95,74 %
01.09.2016 03:32 14,8 C 14,4 C 12,8 C 90 % 2 lf 1020,6 hPa 0,0 l/m 0 min 0 min 0 W/m 4,2 km/h (1 Bft) 97,22 %
01.09.2016 03:34 14,8 C 14,4 C 12,8 C 90 % 2 lf 1020,6 hPa 0,0 l/m 0 min 0 min 0 W/m 6,3 km/h (2 Bft) 95,74 %
01.09.2016 03:36 14,8 C 14,4 C 12,8 C 90 % 2 lf 1020,6 hPa 0,0 l/m 0 min 0 min 0 W/m 4,2 km/h (1 Bft) 95,92 %
01.09.2016 03:38 14,8 C 14,4 C 12,2 C 90 % 2 lf 1020,6 hPa 0,0 l/m 0 min 0 min 0 W/m 4,2 km/h (1 Bft) 97,87 %
01.09.2016 03:40 14,8 C 14,4 C 12,2 C 90 % 2 lf 1020,6 hPa 0,0 l/m 0 min 0 min 0 W/m 4,2 km/h (1 Bft) 95,74 %
01.09.2016 03:42 14,8 C 14,4 C 12,2 C 90 % 2 lf 1020,6 hPa 0,0 l/m 0 min 0 min 0 W/m 6,3 km/h (2 Bft) 91,49 %
01.09.2016 03:44 14,8 C 14,4 C 12,2 C 90 % 2 lf 1020,6 hPa 0,0 l/m 0 min 0 min 0 W/m 4,2 km/h (1 Bft) 93,62 %
01.09.2016 03:46 14,8 C 14,4 C 12,2 C 90 % 2 lf 1020,6 hPa 0,0 l/m 0 min 0 min 0 W/m 6,3 km/h (2 Bft) 95,74 %
01.09.2016 03:48 14,7 C 14,4 C 12,2 C 90 % 2 lf 1020,6 hPa 0,0 l/m 0 min 0 min 0 W/m 6,3 km/h (2 Bft) 95,65 %
01.09.2016 03:50 14,7 C 14,4 C 12,2 C 90 % 2 lf 1020,6 hPa 0,0 l/m 0 min 0 min 0 W/m 6,3 km/h (2 Bft) 95,74 %
01.09.2016 03:52 14,7 C 14,4 C 12,2 C 90 % 2 lf 1020,6 hPa 0,0 l/m 0 min 0 min 0 W/m 6,3 km/h (2 Bft) 97,87 %
01.09.2016 03:54 14,7 C 14,4 C 12,2 C 90 % 2 lf 1020,6 hPa 0,0 l/m 0 min 0 min 0 W/m 6,3 km/h (2 Bft) 97,87 %
01.09.2016 03:56 14,7 C 14,4 C 12,2 C 90 % 2 lf 1020,6 hPa 0,0 l/m 0 min 0 min 0 W/m 6,3 km/h (2 Bft) 95,74 %
01.09.2016 03:58 14,7 C 14,4 C 12,2 C 90 % 2 lf 1020,6 hPa 0,0 l/m 0 min 0 min 0 W/m 6,3 km/h (2 Bft) 97,87 %
01.09.2016 04:00 14,7 C 13,9 C 12,2 C 90 % 2 lf 1020,7 hPa 0,0 l/m 0 min 0 min 0 W/m 4,2 km/h (1 Bft) 93,48 %
01.09.2016 04:02 14,7 C 13,9 C 12,2 C 90 % 2 lf 1020,6 hPa 0,0 l/m 0 min 0 min 0 W/m 4,2 km/h (1 Bft) 100,00 %
01.09.2016 04:04 14,7 C 13,9 C 12,2 C 90 % 2 lf 1020,6 hPa 0,0 l/m 0 min 0 min 0 W/m 8,4 km/h (2 Bft) 93,62 %
01.09.2016 04:06 14,7 C 13,9 C 12,2 C 90 % 2 lf 1020,5 hPa 0,0 l/m 0 min 0 min 0 W/m 4,2 km/h (1 Bft) 95,74 %
01.09.2016 04:08 14,7 C 14,4 C 12,2 C 90 % 2 lf 1020,5 hPa 0,0 l/m 0 min 0 min 0 W/m 6,3 km/h (2 Bft) 95,74 %
01.09.2016 04:10 14,7 C 14,4 C 12,2 C 90 % 2 lf 1020,5 hPa 0,0 l/m 0 min 0 min 0 W/m 6,3 km/h (2 Bft) 95,65 %
01.09.2016 04:12 14,7 C 14,4 C 12,2 C 90 % 2 lf 1020,5 hPa 0,0 l/m 0 min 0 min 0 W/m 4,2 km/h (1 Bft) 93,62 %
01.09.2016 04:14 14,6 C 14,4 C 12,2 C 90 % 2 lf 1020,5 hPa 0,0 l/m 0 min 0 min 0 W/m 4,2 km/h (1 Bft) 97,87 %
01.09.2016 04:16 14,6 C 14,4 C 12,2 C 90 % 2 lf 1020,4 hPa 0,0 l/m 0 min 0 min 0 W/m 4,2 km/h (1 Bft) 93,62 %
01.09.2016 04:18 14,6 C 14,4 C 12,2 C 90 % 2 lf 1020,5 hPa 0,0 l/m 0 min 0 min 0 W/m 6,3 km/h (2 Bft) 95,74 %
01.09.2016 04:20 14,6 C 14,4 C 12,2 C 90 % 2 lf 1020,6 hPa 0,0 l/m 0 min 0 min 0 W/m 8,4 km/h (2 Bft) 93,62 %
01.09.2016 04:22 14,6 C 14,4 C 12,2 C 90 % 2 lf 1020,5 hPa 0,0 l/m 0 min 0 min 0 W/m 8,4 km/h (2 Bft) 95,65 %
01.09.2016 04:24 14,6 C 14,4 C 12,2 C 90 % 2 lf 1020,6 hPa 0,0 l/m 0 min 0 min 0 W/m 8,4 km/h (2 Bft) 95,83 %
01.09.2016 04:26 14,6 C 14,4 C 12,2 C 90 % 2 lf 1020,6 hPa 0,0 l/m 0 min 0 min 0 W/m 4,2 km/h (1 Bft) 91,49 %
01.09.2016 04:28 14,6 C 14,4 C 12,2 C 90 % 2 lf 1020,5 hPa 0,0 l/m 0 min 0 min 0 W/m 4,2 km/h (1 Bft) 95,74 %
01.09.2016 04:30 14,6 C 14,4 C 12,2 C 90 % 2 lf 1020,5 hPa 0,0 l/m 0 min 0 min 0 W/m 8,4 km/h (2 Bft) 95,74 %
01.09.2016 04:32 14,6 C 14,4 C 12,2 C 90 % 2 lf 1020,4 hPa 0,0 l/m 0 min 0 min 0 W/m 8,4 km/h (2 Bft) 95,83 %
01.09.2016 04:34 14,6 C 14,4 C 12,2 C 90 % 2 lf 1020,5 hPa 0,0 l/m 0 min 0 min 0 W/m 6,3 km/h (2 Bft) 95,65 %
01.09.2016 04:36 14,6 C 14,4 C 12,2 C 90 % 2 lf 1020,5 hPa 0,0 l/m 0 min 0 min 0 W/m 6,3 km/h (2 Bft) 95,74 %
01.09.2016 04:38 14,6 C 14,4 C 12,2 C 91 % 2 lf 1020,5 hPa 0,0 l/m 0 min 0 min 0 W/m 6,3 km/h (2 Bft) 93,62 %
01.09.2016 04:40 14,6 C 14,4 C 12,2 C 91 % 2 lf 1020,5 hPa 0,0 l/m 0 min 0 min 0 W/m 8,4 km/h (2 Bft) 97,87 %
01.09.2016 04:42 14,6 C 14,4 C 12,2 C 91 % 2 lf 1020,5 hPa 0,0 l/m 0 min 0 min 0 W/m 6,3 km/h (2 Bft) 95,74 %
01.09.2016 04:44 14,6 C 14,4 C 12,2 C 91 % 2 lf 1020,5 hPa 0,0 l/m 0 min 0 min 0 W/m 4,2 km/h (1 Bft) 93,62 %
01.09.2016 04:46 14,6 C 14,4 C 12,2 C 91 % 2 lf 1020,5 hPa 0,0 l/m 0 min 0 min 0 W/m 4,2 km/h (1 Bft) 91,30 %
01.09.2016 04:48 14,6 C 14,4 C 12,2 C 91 % 3 lf 1020,5 hPa 0,0 l/m 0 min 0 min 0 W/m 6,3 km/h (2 Bft) 93,62 %
01.09.2016 04:50 14,6 C 13,9 C 12,2 C 91 % 3 lf 1020,6 hPa 0,0 l/m 0 min 0 min 0 W/m 6,3 km/h (2 Bft) 95,74 %
01.09.2016 04:52 14,6 C 13,9 C 12,2 C 91 % 3 lf 1020,7 hPa 0,0 l/m 0 min 0 min 0 W/m 6,3 km/h (2 Bft) 95,74 %
01.09.2016 04:54 14,6 C 13,9 C 12,2 C 91 % 3 lf 1020,6 hPa 0,0 l/m 0 min 0 min 0 W/m 4,2 km/h (1 Bft) 93,62 %
01.09.2016 04:56 14,6 C 13,9 C 12,2 C 91 % 3 lf 1020,6 hPa 0,0 l/m 0 min 0 min 0 W/m 4,2 km/h (1 Bft) 93,62 %
01.09.2016 04:58 14,5 C 13,9 C 12,2 C 91 % 3 lf 1020,6 hPa 0,0 l/m 0 min 0 min 0 W/m 6,3 km/h (2 Bft) 95,65 %
01.09.2016 05:00 14,6 C 13,9 C 12,2 C 91 % 3 lf 1020,7 hPa 0,0 l/m 0 min 0 min 0 W/m 6,3 km/h (2 Bft) 89,36 %
01.09.2016 05:02 14,5 C 13,9 C 12,2 C 91 % 3 lf 1020,7 hPa 0,0 l/m 0 min 0 min 0 W/m 6,3 km/h (2 Bft) 91,67 %
01.09.2016 05:04 14,5 C 13,9 C 12,2 C 91 % 3 lf 1020,7 hPa 0,0 l/m 0 min 0 min 0 W/m 6,3 km/h (2 Bft) 95,74 %
01.09.2016 05:06 14,5 C 13,9 C 12,2 C 91 % 3 lf 1020,7 hPa 0,0 l/m 0 min 0 min 0 W/m 8,4 km/h (2 Bft) 95,74 %
01.09.2016 05:08 14,5 C 13,9 C 12,2 C 91 % 3 lf 1020,7 hPa 0,0 l/m 0 min 0 min 0 W/m 8,4 km/h (2 Bft) 97,83 %
01.09.2016 05:10 14,5 C 13,9 C 12,2 C 91 % 3 lf 1020,7 hPa 0,0 l/m 0 min 0 min 0 W/m 10,5 km/h (2 Bft) 95,74 %
01.09.2016 05:12 14,4 C 13,9 C 12,2 C 91 % 3 lf 1020,7 hPa 0,0 l/m 0 min 0 min 0 W/m 6,3 km/h (2 Bft) 97,87 %
01.09.2016 05:14 14,4 C 13,9 C 12,2 C 91 % 3 lf 1020,7 hPa 0,0 l/m 0 min 0 min 0 W/m 8,4 km/h (2 Bft) 95,74 %
01.09.2016 05:16 14,4 C 13,9 C 12,2 C 91 % 3 lf 1020,7 hPa 0,0 l/m 0 min 0 min 0 W/m 10,5 km/h (2 Bft) 95,74 %
01.09.2016 05:18 14,4 C 13,9 C 12,2 C 91 % 3 lf 1020,7 hPa 0,0 l/m 0 min 0 min 0 W/m 8,4 km/h (2 Bft) 91,49 %
01.09.2016 05:20 14,4 C 13,9 C 12,2 C 91 % 3 lf 1020,7 hPa 0,0 l/m 0 min 0 min 0 W/m 10,5 km/h (2 Bft) 95,65 %
01.09.2016 05:22 14,4 C 13,9 C 12,2 C 91 % 3 lf 1020,7 hPa 0,0 l/m 0 min 0 min 0 W/m 8,4 km/h (2 Bft) 95,74 %
01.09.2016 05:24 14,4 C 13,9 C 12,2 C 91 % 3 lf 1020,8 hPa 0,0 l/m 0 min 0 min 0 W/m 10,5 km/h (2 Bft) 97,87 %
01.09.2016 05:26 14,4 C 13,9 C 12,2 C 92 % 3 lf 1020,9 hPa 0,0 l/m 0 min 0 min 0 W/m 8,4 km/h (2 Bft) 95,74 %
01.09.2016 05:28 14,5 C 13,9 C 12,2 C 92 % 3 lf 1020,8 hPa 0,0 l/m 0 min 0 min 0 W/m 8,4 km/h (2 Bft) 97,87 %
01.09.2016 05:30 14,4 C 13,9 C 12,2 C 92 % 3 lf 1020,9 hPa 0,0 l/m 0 min 0 min 0 W/m 6,3 km/h (2 Bft) 97,87 %
01.09.2016 05:32 14,4 C 13,9 C 12,2 C 92 % 3 lf 1020,8 hPa 0,0 l/m 0 min 0 min 0 W/m 4,2 km/h (1 Bft) 97,87 %
01.09.2016 05:34 14,4 C 13,9 C 12,2 C 92 % 3 lf 1020,8 hPa 0,0 l/m 0 min 0 min 0 W/m 6,3 km/h (2 Bft) 95,74 %
01.09.2016 05:36 14,4 C 13,9 C 12,2 C 92 % 3 lf 1020,9 hPa 0,0 l/m 0 min 0 min 0 W/m 8,4 km/h (2 Bft) 97,87 %
01.09.2016 05:38 14,4 C 13,9 C 12,2 C 92 % 3 lf 1020,9 hPa 0,0 l/m 0 min 0 min 0 W/m 8,4 km/h (2 Bft) 97,87 %
01.09.2016 05:40 14,4 C 13,9 C 12,2 C 92 % 3 lf 1020,8 hPa 0,0 l/m 0 min 0 min 0 W/m 10,5 km/h (2 Bft) 95,74 %
01.09.2016 05:42 14,4 C 13,9 C 12,2 C 92 % 3 lf 1020,9 hPa 0,0 l/m 0 min 0 min 0 W/m 8,4 km/h (2 Bft) 97,87 %
01.09.2016 05:44 14,4 C 13,9 C 12,2 C 92 % 3 lf 1020,8 hPa 0,0 l/m 0 min 0 min 0 W/m 6,3 km/h (2 Bft) 97,83 %
01.09.2016 05:46 14,4 C 13,9 C 12,2 C 92 % 3 lf 1020,8 hPa 0,0 l/m 0 min 0 min 0 W/m 8,4 km/h (2 Bft) 95,74 %
01.09.2016 05:48 14,4 C 13,9 C 12,2 C 92 % 3 lf 1020,8 hPa 0,0 l/m 0 min 0 min 0 W/m 6,3 km/h (2 Bft) 93,62 %
01.09.2016 05:50 14,4 C 13,9 C 12,2 C 92 % 3 lf 1020,8 hPa 0,0 l/m 0 min 0 min 0 W/m 6,3 km/h (2 Bft) 97,87 %
01.09.2016 05:52 14,4 C 13,9 C 12,2 C 92 % 3 lf 1020,9 hPa 0,0 l/m 0 min 0 min 0 W/m 2,1 km/h (1 Bft) 95,74 %
01.09.2016 05:54 14,4 C 13,9 C 12,2 C 92 % 3 lf 1020,8 hPa 0,0 l/m 0 min 0 min 0 W/m 0,0 km/h (0 Bft) 97,83 %
01.09.2016 05:56 14,4 C 13,9 C 12,2 C 92 % 3 lf 1020,8 hPa 0,0 l/m 0 min 0 min 0 W/m 4,2 km/h (1 Bft) 97,87 %
01.09.2016 05:58 14,3 C 13,9 C 12,2 C 92 % 3 lf 1020,8 hPa 0,0 l/m 0 min 0 min 0 W/m 4,2 km/h (1 Bft) 93,62 %
01.09.2016 06:00 14,3 C 13,9 C 12,2 C 92 % 3 lf 1020,8 hPa 0,0 l/m 0 min 0 min 0 W/m 6,3 km/h (2 Bft) 95,74 %
01.09.2016 06:02 14,3 C 13,9 C 12,2 C 92 % 3 lf 1020,8 hPa 0,0 l/m 0 min 0 min 0 W/m 4,2 km/h (1 Bft) 93,75 %
01.09.2016 06:04 14,3 C 13,9 C 12,2 C 92 % 4 lf 1020,8 hPa 0,0 l/m 0 min 0 min 0 W/m 2,1 km/h (1 Bft) 97,87 %
01.09.2016 06:06 14,3 C 13,9 C 12,2 C 92 % 4 lf 1020,8 hPa 0,0 l/m 0 min 0 min 0 W/m 2,1 km/h (1 Bft) 93,48 %
01.09.2016 06:08 14,3 C 13,9 C 11,7 C 92 % 4 lf 1020,8 hPa 0,0 l/m 0 min 0 min 0 W/m 4,2 km/h (1 Bft) 93,62 %
01.09.2016 06:10 14,3 C 13,9 C 11,7 C 92 % 4 lf 1020,8 hPa 0,0 l/m 0 min 0 min 0 W/m 2,1 km/h (1 Bft) 97,87 %
01.09.2016 06:12 14,3 C 13,3 C 11,7 C 92 % 4 lf 1020,8 hPa 0,0 l/m 0 min 0 min 0 W/m 0,0 km/h (0 Bft) 95,74 %
01.09.2016 06:14 14,3 C 13,3 C 11,7 C 92 % 5 lf 1020,9 hPa 0,0 l/m 0 min 0 min 0 W/m 0,0 km/h (0 Bft) 91,49 %
01.09.2016 06:16 14,3 C 13,3 C 11,7 C 92 % 5 lf 1020,8 hPa 0,0 l/m 0 min 0 min 0 W/m 6,3 km/h (2 Bft) 93,62 %
01.09.2016 06:18 14,2 C 13,3 C 11,7 C 92 % 6 lf 1020,7 hPa 0,0 l/m 0 min 0 min 0 W/m 4,2 km/h (1 Bft) 95,65 %
01.09.2016 06:20 14,2 C 13,3 C 11,7 C 92 % 7 lf 1020,8 hPa 0,0 l/m 0 min 0 min 0 W/m 2,1 km/h (1 Bft) 95,74 %
01.09.2016 06:22 14,2 C 13,3 C 11,7 C 92 % 7 lf 1020,7 hPa 0,0 l/m 0 min 0 min 0 W/m 4,2 km/h (1 Bft) 95,74 %
01.09.2016 06:24 14,2 C 13,3 C 11,7 C 92 % 7 lf 1020,7 hPa 0,0 l/m 0 min 0 min 0 W/m 4,2 km/h (1 Bft) 93,62 %
01.09.2016 06:26 14,2 C 13,3 C 11,7 C 92 % 8 lf 1020,7 hPa 0,0 l/m 0 min 0 min 0 W/m 2,1 km/h (1 Bft) 95,74 %
01.09.2016 06:28 14,2 C 13,3 C 11,7 C 92 % 9 lf 1020,7 hPa 0,0 l/m 0 min 0 min 0 W/m 6,3 km/h (2 Bft) 91,49 %
01.09.2016 06:30 14,2 C 13,3 C 11,7 C 92 % 9 lf 1020,7 hPa 0,0 l/m 0 min 0 min 0 W/m 6,3 km/h (2 Bft) 95,65 %
01.09.2016 06:32 14,2 C 13,3 C 11,7 C 92 % 10 lf 1020,7 hPa 0,0 l/m 0 min 0 min 0 W/m 4,2 km/h (1 Bft) 97,22 %
01.09.2016 06:34 14,2 C 13,3 C 12,2 C 92 % 10 lf 1020,7 hPa 0,0 l/m 0 min 0 min 5 W/m 6,3 km/h (2 Bft) 97,87 %
01.09.2016 06:36 14,2 C 13,3 C 11,7 C 92 % 10 lf 1020,8 hPa 0,0 l/m 0 min 0 min 7 W/m 4,2 km/h (1 Bft) 94,34 %
01.09.2016 06:38 14,2 C 13,3 C 11,7 C 92 % 10 lf 1020,8 hPa 0,0 l/m 0 min 0 min 9 W/m 4,2 km/h (1 Bft) 95,74 %
01.09.2016 06:40 14,2 C 13,3 C 11,7 C 92 % 10 lf 1020,8 hPa 0,0 l/m 0 min 0 min 11 W/m 4,2 km/h (1 Bft) 97,87 %
01.09.2016 06:42 14,2 C 13,3 C 11,7 C 92 % 10 lf 1020,8 hPa 0,0 l/m 0 min 0 min 11 W/m 4,2 km/h (1 Bft) 95,65 %
01.09.2016 06:44 14,2 C 13,3 C 11,7 C 92 % 10 lf 1020,8 hPa 0,0 l/m 0 min 0 min 13 W/m 4,2 km/h (1 Bft) 97,87 %
01.09.2016 06:46 14,2 C 13,3 C 12,2 C 92 % 10 lf 1020,8 hPa 0,0 l/m 0 min 0 min 16 W/m 6,3 km/h (2 Bft) 95,12 %
01.09.2016 06:48 14,2 C 13,3 C 12,2 C 92 % 10 lf 1020,9 hPa 0,0 l/m 0 min 0 min 17 W/m 6,3 km/h (2 Bft) 97,87 %
01.09.2016 06:50 14,2 C 13,3 C 12,2 C 92 % 10 lf 1020,9 hPa 0,0 l/m 0 min 0 min 18 W/m 4,2 km/h (1 Bft) 96,23 %
01.09.2016 06:52 14,2 C 13,3 C 12,2 C 92 % 10 lf 1021,0 hPa 0,0 l/m 0 min 0 min 19 W/m 4,2 km/h (1 Bft) 97,87 %
01.09.2016 06:54 14,2 C 13,3 C 12,2 C 92 % 10 lf 1021,0 hPa 0,0 l/m 0 min 0 min 20 W/m 4,2 km/h (1 Bft) 97,83 %
01.09.2016 06:56 14,2 C 13,3 C 11,7 C 92 % 10 lf 1021,0 hPa 0,0 l/m 0 min 0 min 21 W/m 4,2 km/h (1 Bft) 97,87 %
01.09.2016 06:58 14,2 C 13,3 C 12,2 C 92 % 9 lf 1021,0 hPa 0,0 l/m 0 min 0 min 23 W/m 2,1 km/h (1 Bft) 97,87 %
01.09.2016 07:00 14,2 C 13,3 C 12,2 C 93 % 9 lf 1021,0 hPa 0,0 l/m 2 min 0 min 24 W/m 4,2 km/h (1 Bft) 95,74 %
01.09.2016 07:02 14,2 C 13,9 C 12,2 C 93 % 8 lf 1021,1 hPa 0,0 l/m 2 min 0 min 25 W/m 4,2 km/h (1 Bft) 100,00 %
01.09.2016 07:04 14,2 C 13,9 C 12,2 C 93 % 8 lf 1021,1 hPa 0,0 l/m 2 min 0 min 26 W/m 6,3 km/h (2 Bft) 100,00 %
01.09.2016 07:06 14,2 C 13,9 C 12,2 C 93 % 7 lf 1021,1 hPa 0,0 l/m 2 min 0 min 28 W/m 6,3 km/h (2 Bft) 98,08 %
01.09.2016 07:08 14,2 C 13,9 C 12,2 C 93 % 6 lf 1021,1 hPa 0,0 l/m 2 min 0 min 30 W/m 4,2 km/h (1 Bft) 97,87 %
01.09.2016 07:10 14,2 C 13,9 C 12,2 C 93 % 6 lf 1021,2 hPa 0,0 l/m 2 min 0 min 32 W/m 4,2 km/h (1 Bft) 100,00 %
01.09.2016 07:12 14,2 C 13,9 C 12,2 C 93 % 5 lf 1021,2 hPa 0,0 l/m 2 min 0 min 33 W/m 4,2 km/h (1 Bft) 97,87 %
01.09.2016 07:14 14,2 C 13,9 C 12,2 C 93 % 5 lf 1021,2 hPa 0,0 l/m 2 min 0 min 36 W/m 6,3 km/h (2 Bft) 97,87 %
01.09.2016 07:16 14,2 C 13,9 C 12,2 C 93 % 4 lf 1021,1 hPa 0,0 l/m 2 min 0 min 38 W/m 4,2 km/h (1 Bft) 92,68 %
01.09.2016 07:18 14,2 C 14,4 C 12,2 C 93 % 4 lf 1021,2 hPa 0,0 l/m 2 min 0 min 39 W/m 6,3 km/h (2 Bft) 94,44 %
01.09.2016 07:20 14,2 C 14,4 C 12,2 C 93 % 4 lf 1021,1 hPa 0,0 l/m 2 min 0 min 41 W/m 8,4 km/h (2 Bft) 97,87 %
01.09.2016 07:22 14,2 C 14,4 C 12,8 C 93 % 4 lf 1021,2 hPa 0,0 l/m 2 min 0 min 43 W/m 6,3 km/h (2 Bft) 97,87 %
01.09.2016 07:24 14,2 C 14,4 C 12,8 C 93 % 4 lf 1021,1 hPa 0,0 l/m 2 min 0 min 46 W/m 8,4 km/h (2 Bft) 97,87 %
01.09.2016 07:26 14,2 C 14,4 C 12,8 C 93 % 4 lf 1021,2 hPa 0,0 l/m 2 min 0 min 48 W/m 8,4 km/h (2 Bft) 97,87 %
01.09.2016 07:28 14,2 C 14,4 C 12,8 C 93 % 4 lf 1021,2 hPa 0,0 l/m 2 min 0 min 50 W/m 8,4 km/h (2 Bft) 97,83 %
01.09.2016 07:30 14,2 C 14,4 C 12,8 C 93 % 4 lf 1021,2 hPa 0,0 l/m 2 min 0 min 52 W/m 8,4 km/h (2 Bft) 93,62 %
01.09.2016 07:32 14,2 C 15,0 C 12,8 C 93 % 4 lf 1021,2 hPa 0,0 l/m 2 min 0 min 53 W/m 8,4 km/h (2 Bft) 95,74 %
01.09.2016 07:34 14,2 C 15,0 C 12,8 C 94 % 4 lf 1021,2 hPa 0,0 l/m 2 min 0 min 61 W/m 10,5 km/h (2 Bft) 97,87 %
01.09.2016 07:36 14,3 C 15,0 C 12,8 C 94 % 3 lf 1021,2 hPa 0,0 l/m 0 min 0 min 53 W/m 8,4 km/h (2 Bft) 95,74 %
01.09.2016 07:38 14,3 C 15,0 C 13,3 C 94 % 3 lf 1021,2 hPa 0,0 l/m 0 min 0 min 55 W/m 8,4 km/h (2 Bft) 97,87 %
01.09.2016 07:40 14,3 C 15,0 C 13,3 C 94 % 3 lf 1021,2 hPa 0,0 l/m 2 min 0 min 74 W/m 6,3 km/h (2 Bft) 95,65 %
01.09.2016 07:42 14,3 C 15,0 C 13,3 C 94 % 3 lf 1021,3 hPa 0,0 l/m 2 min 0 min 80 W/m 8,4 km/h (2 Bft) 95,74 %
01.09.2016 07:44 14,4 C 15,0 C 13,3 C 94 % 3 lf 1021,2 hPa 0,0 l/m 0 min 0 min 66 W/m 8,4 km/h (2 Bft) 95,74 %
01.09.2016 07:46 14,4 C 15,0 C 13,3 C 94 % 3 lf 1021,3 hPa 0,0 l/m 0 min 0 min 62 W/m 10,5 km/h (2 Bft) 95,74 %
01.09.2016 07:48 14,4 C 15,0 C 13,3 C 94 % 3 lf 1021,3 hPa 0,0 l/m 2 min 0 min 75 W/m 8,4 km/h (2 Bft) 95,74 %
01.09.2016 07:50 14,4 C 15,0 C 13,3 C 94 % 3 lf 1021,3 hPa 0,0 l/m 2 min 0 min 75 W/m 8,4 km/h (2 Bft) 95,74 %
01.09.2016 07:52 14,4 C 15,0 C 13,3 C 94 % 3 lf 1021,3 hPa 0,0 l/m 0 min 0 min 69 W/m 10,5 km/h (2 Bft) 91,30 %
01.09.2016 07:54 14,5 C 15,0 C 13,3 C 94 % 3 lf 1021,3 hPa 0,0 l/m 0 min 0 min 78 W/m 10,5 km/h (2 Bft) 95,74 %
01.09.2016 07:56 14,6 C 15,6 C 13,3 C 94 % 3 lf 1021,3 hPa 0,0 l/m 2 min 0 min 99 W/m 10,5 km/h (2 Bft) 95,74 %
01.09.2016 07:58 14,6 C 15,6 C 13,9 C 94 % 3 lf 1021,2 hPa 0,0 l/m 2 min 0 min 99 W/m 10,5 km/h (2 Bft) 89,36 %
01.09.2016 08:00 14,6 C 15,6 C 13,9 C 94 % 2 lf 1021,2 hPa 0,0 l/m 2 min 0 min 118 W/m 8,4 km/h (2 Bft) 97,87 %
01.09.2016 08:02 14,7 C 15,6 C 13,9 C 94 % 2 lf 1021,3 hPa 0,0 l/m 2 min 0 min 122 W/m 10,5 km/h (2 Bft) 93,62 %
01.09.2016 08:04 14,7 C 15,6 C 13,9 C 95 % 2 lf 1021,2 hPa 0,0 l/m 2 min 0 min 128 W/m 8,4 km/h (2 Bft) 95,65 %
01.09.2016 08:06 14,7 C 16,1 C 13,9 C 95 % 2 lf 1021,2 hPa 0,0 l/m 2 min 0 min 148 W/m 10,5 km/h (2 Bft) 97,87 %
01.09.2016 08:08 14,8 C 16,1 C 13,9 C 95 % 2 lf 1021,2 hPa 0,0 l/m 2 min 0 min 150 W/m 12,6 km/h (3 Bft) 95,74 %
01.09.2016 08:10 14,8 C 16,1 C 14,4 C 95 % 2 lf 1021,2 hPa 0,0 l/m 2 min 0 min 162 W/m 10,5 km/h (2 Bft) 95,74 %
01.09.2016 08:12 14,8 C 16,1 C 14,4 C 95 % 2 lf 1021,3 hPa 0,0 l/m 2 min 0 min 173 W/m 14,6 km/h (3 Bft) 97,87 %
01.09.2016 08:14 14,9 C 16,1 C 14,4 C 95 % 2 lf 1021,3 hPa 0,0 l/m 2 min 0 min 183 W/m 12,6 km/h (3 Bft) 97,87 %
01.09.2016 08:16 14,9 C 16,7 C 14,4 C 95 % 2 lf 1021,3 hPa 0,0 l/m 2 min 0 min 181 W/m 8,4 km/h (2 Bft) 97,83 %
01.09.2016 08:18 15,0 C 16,7 C 14,4 C 95 % 2 lf 1021,4 hPa 0,0 l/m 2 min 0 min 192 W/m 10,5 km/h (2 Bft) 97,87 %
01.09.2016 08:20 15,0 C 16,7 C 14,4 C 95 % 2 lf 1021,4 hPa 0,0 l/m 2 min 0 min 198 W/m 10,5 km/h (2 Bft) 97,87 %
01.09.2016 08:22 15,1 C 16,7 C 14,4 C 95 % 2 lf 1021,4 hPa 0,0 l/m 2 min 0 min 196 W/m 8,4 km/h (2 Bft) 97,87 %
01.09.2016 08:24 15,1 C 16,7 C 14,4 C 95 % 2 lf 1021,4 hPa 0,0 l/m 2 min 0 min 186 W/m 10,5 km/h (2 Bft) 95,74 %
01.09.2016 08:26 15,2 C 16,7 C 14,4 C 95 % 2 lf 1021,4 hPa 0,0 l/m 2 min 0 min 197 W/m 10,5 km/h (2 Bft) 100,00 %
01.09.2016 08:28 15,2 C 17,2 C 15,0 C 95 % 2 lf 1021,4 hPa 0,0 l/m 2 min 0 min 211 W/m 8,4 km/h (2 Bft) 97,83 %
01.09.2016 08:30 15,3 C 17,2 C 15,0 C 95 % 2 lf 1021,5 hPa 0,0 l/m 2 min 0 min 209 W/m 10,5 km/h (2 Bft) 100,00 %
01.09.2016 08:32 15,3 C 17,2 C 15,0 C 95 % 2 lf 1021,5 hPa 0,0 l/m 2 min 0 min 205 W/m 12,6 km/h (3 Bft) 100,00 %
01.09.2016 08:34 15,4 C 17,2 C 15,0 C 95 % 2 lf 1021,6 hPa 0,0 l/m 2 min 0 min 176 W/m 10,5 km/h (2 Bft) 97,87 %
01.09.2016 08:36 15,5 C 17,2 C 15,0 C 95 % 2 lf 1021,6 hPa 0,0 l/m 2 min 0 min 161 W/m 8,4 km/h (2 Bft) 100,00 %
01.09.2016 08:38 15,6 C 17,2 C 15,0 C 95 % 2 lf 1021,7 hPa 0,0 l/m 2 min 0 min 188 W/m 10,5 km/h (2 Bft) 93,62 %
01.09.2016 08:40 15,6 C 17,8 C 15,0 C 95 % 2 lf 1021,7 hPa 0,0 l/m 2 min 0 min 215 W/m 10,5 km/h (2 Bft) 97,83 %
01.09.2016 08:42 15,7 C 18,3 C 15,6 C 95 % 2 lf 1021,6 hPa 0,0 l/m 2 min 0 min 237 W/m 10,5 km/h (2 Bft) 97,87 %
01.09.2016 08:44 15,8 C 18,3 C 15,6 C 95 % 1 lf 1021,6 hPa 0,0 l/m 2 min 0 min 276 W/m 16,7 km/h (3 Bft) 97,87 %
01.09.2016 08:46 15,8 C 18,9 C 15,6 C 95 % 1 lf 1021,6 hPa 0,0 l/m 2 min 0 min 282 W/m 16,7 km/h (3 Bft) 93,62 %
01.09.2016 08:48 15,9 C 18,9 C 15,6 C 95 % 1 lf 1021,6 hPa 0,0 l/m 2 min 0 min 208 W/m 16,7 km/h (3 Bft) 100,00 %
01.09.2016 08:50 16,0 C 18,9 C 15,6 C 95 % 1 lf 1021,6 hPa 0,0 l/m 2 min 0 min 235 W/m 12,6 km/h (3 Bft) 97,87 %
01.09.2016 08:52 16,1 C 20,0 C 16,1 C 95 % 1 lf 1021,6 hPa 0,0 l/m 2 min 0 min 244 W/m 10,5 km/h (2 Bft) 97,83 %
01.09.2016 08:54 16,2 C 21,1 C 16,1 C 95 % 1 lf 1021,6 hPa 0,0 l/m 2 min 0 min 225 W/m 8,4 km/h (2 Bft) 95,74 %
01.09.2016 08:56 16,2 C 21,1 C 15,6 C 95 % 1 lf 1021,6 hPa 0,0 l/m 2 min 0 min 184 W/m 14,6 km/h (3 Bft) 97,87 %
01.09.2016 08:58 16,3 C 21,7 C 15,6 C 95 % 1 lf 1021,6 hPa 0,0 l/m 2 min 0 min 207 W/m 10,5 km/h (2 Bft) 93,62 %
01.09.2016 09:00 16,4 C 21,7 C 16,1 C 95 % 1 lf 1021,7 hPa 0,0 l/m 2 min 0 min 234 W/m 10,5 km/h (2 Bft) 95,74 %
01.09.2016 09:02 16,4 C 22,8 C 16,1 C 95 % 1 lf 1021,7 hPa 0,0 l/m 2 min 0 min 270 W/m 8,4 km/h (2 Bft) 93,62 %
01.09.2016 09:04 16,5 C 23,9 C 16,1 C 95 % 1 lf 1021,6 hPa 0,0 l/m 2 min 0 min 268 W/m 6,3 km/h (2 Bft) 95,65 %
01.09.2016 09:06 16,6 C 23,9 C 16,1 C 95 % 1 lf 1021,7 hPa 0,0 l/m 2 min 0 min 240 W/m 8,4 km/h (2 Bft) 97,87 %
01.09.2016 09:08 16,7 C 23,3 C 16,1 C 94 % 1 lf 1021,7 hPa 0,0 l/m 2 min 0 min 241 W/m 10,5 km/h (2 Bft) 95,74 %
01.09.2016 09:10 16,8 C 24,4 C 16,1 C 94 % 1 lf 1021,7 hPa 0,0 l/m 2 min 0 min 289 W/m 12,6 km/h (3 Bft) 93,62 %
01.09.2016 09:12 16,8 C 23,9 C 16,7 C 94 % 1 lf 1021,7 hPa 0,0 l/m 2 min 0 min 321 W/m 12,6 km/h (3 Bft) 95,74 %
01.09.2016 09:14 16,9 C 25,0 C 16,7 C 94 % 0 lf 1021,7 hPa 0,0 l/m 2 min 0 min 372 W/m 10,5 km/h (2 Bft) 95,74 %
01.09.2016 09:16 17,1 C 26,1 C 17,2 C 94 % 0 lf 1021,7 hPa 0,0 l/m 2 min 0 min 392 W/m 8,4 km/h (2 Bft) 91,30 %
01.09.2016 09:18 17,2 C 25,0 C 17,2 C 94 % 0 lf 1021,7 hPa 0,0 l/m 2 min 0 min 414 W/m 12,6 km/h (3 Bft) 93,62 %
01.09.2016 09:20 17,3 C 25,6 C 17,2 C 94 % 0 lf 1021,7 hPa 0,0 l/m 2 min 0 min 359 W/m 10,5 km/h (2 Bft) 93,62 %
01.09.2016 09:22 17,4 C 26,1 C 17,2 C 94 % 0 lf 1021,8 hPa 0,0 l/m 2 min 0 min 342 W/m 14,6 km/h (3 Bft) 95,74 %
01.09.2016 09:24 17,6 C 24,4 C 17,2 C 94 % 0 lf 1021,7 hPa 0,0 l/m 2 min 0 min 325 W/m 10,5 km/h (2 Bft) 95,74 %
01.09.2016 09:26 17,7 C 23,9 C 17,2 C 93 % 0 lf 1021,7 hPa 0,0 l/m 0 min 0 min 191 W/m 10,5 km/h (2 Bft) 91,49 %
01.09.2016 09:28 17,8 C 23,3 C 17,2 C 93 % 1 lf 1021,7 hPa 0,0 l/m 0 min 0 min 166 W/m 12,6 km/h (3 Bft) 95,65 %
01.09.2016 09:30 17,8 C 22,8 C 17,2 C 92 % 1 lf 1021,7 hPa 0,0 l/m 2 min 0 min 214 W/m 10,5 km/h (2 Bft) 95,74 %
01.09.2016 09:32 17,9 C 23,9 C 17,2 C 92 % 0 lf 1021,7 hPa 0,0 l/m 2 min 0 min 279 W/m 10,5 km/h (2 Bft) 95,74 %
01.09.2016 09:34 18,0 C 24,4 C 17,2 C 92 % 0 lf 1021,8 hPa 0,0 l/m 2 min 0 min 418 W/m 10,5 km/h (2 Bft) 91,49 %
01.09.2016 09:36 18,1 C 26,1 C 17,2 C 91 % 0 lf 1021,7 hPa 0,0 l/m 2 min 0 min 389 W/m 12,6 km/h (3 Bft) 96,30 %
01.09.2016 09:38 18,2 C 26,1 C 17,8 C 91 % 0 lf 1021,8 hPa 0,0 l/m 2 min 0 min 432 W/m 14,6 km/h (3 Bft) 95,65 %
01.09.2016 09:40 18,3 C 26,1 C 17,8 C 90 % 0 lf 1021,8 hPa 0,0 l/m 2 min 0 min 436 W/m 12,6 km/h (3 Bft) 97,87 %
01.09.2016 09:42 18,4 C 25,6 C 17,8 C 90 % 0 lf 1021,8 hPa 0,0 l/m 2 min 0 min 424 W/m 16,7 km/h (3 Bft) 93,62 %
01.09.2016 09:44 18,5 C 26,1 C 17,8 C 89 % 0 lf 1021,9 hPa 0,0 l/m 2 min 0 min 413 W/m 20,9 km/h (4 Bft) 93,62 %
01.09.2016 09:46 18,6 C 26,1 C 17,8 C 89 % 0 lf 1021,8 hPa 0,0 l/m 2 min 0 min 406 W/m 14,6 km/h (3 Bft) 95,74 %
01.09.2016 09:48 18,7 C 26,1 C 18,3 C 88 % 0 lf 1021,9 hPa 0,0 l/m 2 min 0 min 432 W/m 14,6 km/h (3 Bft) 97,87 %
01.09.2016 09:50 18,8 C 26,1 C 18,9 C 88 % 0 lf 1021,9 hPa 0,0 l/m 2 min 0 min 450 W/m 14,6 km/h (3 Bft) 95,65 %
01.09.2016 09:52 18,9 C 26,1 C 18,9 C 88 % 0 lf 1022,1 hPa 0,0 l/m 2 min 0 min 471 W/m 18,8 km/h (3 Bft) 97,87 %
01.09.2016 09:54 18,9 C 26,7 C 20,0 C 88 % 0 lf 1022,0 hPa 0,0 l/m 2 min 0 min 496 W/m 18,8 km/h (3 Bft) 97,87 %
01.09.2016 09:56 19,1 C 27,8 C 20,6 C 87 % 0 lf 1022,0 hPa 0,0 l/m 2 min 0 min 509 W/m 16,7 km/h (3 Bft) 93,62 %
01.09.2016 09:58 19,2 C 27,2 C 20,6 C 87 % 0 lf 1022,0 hPa 0,0 l/m 2 min 0 min 482 W/m 14,6 km/h (3 Bft) 97,87 %
01.09.2016 10:00 19,3 C 27,2 C 20,6 C 87 % 0 lf 1022,0 hPa 0,0 l/m 2 min 0 min 456 W/m 16,7 km/h (3 Bft) 97,87 %
01.09.2016 10:02 19,4 C 25,6 C 20,6 C 86 % 0 lf 1022,0 hPa 0,0 l/m 2 min 0 min 324 W/m 10,5 km/h (2 Bft) 91,30 %
01.09.2016 10:04 19,4 C 23,9 C 20,0 C 86 % 0 lf 1022,0 hPa 0,0 l/m 2 min 0 min 244 W/m 14,6 km/h (3 Bft) 97,87 %
01.09.2016 10:06 19,5 C 23,3 C 20,0 C 86 % 0 lf 1022,1 hPa 0,0 l/m 2 min 0 min 241 W/m 10,5 km/h (2 Bft) 92,00 %
01.09.2016 10:08 19,6 C 23,9 C 20,0 C 85 % 0 lf 1022,1 hPa 0,0 l/m 2 min 0 min 242 W/m 10,5 km/h (2 Bft) 95,74 %
01.09.2016 10:10 19,6 C 24,4 C 20,6 C 85 % 0 lf 1022,1 hPa 0,0 l/m 2 min 0 min 345 W/m 12,6 km/h (3 Bft) 93,62 %
01.09.2016 10:12 19,7 C 23,3 C 20,6 C 85 % 0 lf 1022,1 hPa 0,0 l/m 0 min 0 min 243 W/m 8,4 km/h (2 Bft) 95,65 %
01.09.2016 10:14 19,7 C 23,3 C 19,4 C 85 % 0 lf 1022,1 hPa 0,0 l/m 0 min 0 min 158 W/m 6,3 km/h (2 Bft) 95,74 %
01.09.2016 10:16 19,7 C 23,3 C 19,4 C 85 % 0 lf 1022,1 hPa 0,0 l/m 0 min 0 min 181 W/m 12,6 km/h (3 Bft) 95,74 %
01.09.2016 10:18 19,7 C 24,4 C 20,6 C 85 % 0 lf 1022,2 hPa 0,0 l/m 2 min 0 min 318 W/m 12,6 km/h (3 Bft) 95,74 %
01.09.2016 10:20 19,7 C 25,6 C 21,1 C 85 % 0 lf 1022,1 hPa 0,0 l/m 2 min 0 min 372 W/m 12,6 km/h (3 Bft) 95,74 %
01.09.2016 10:22 19,8 C 25,6 C 22,2 C 85 % 0 lf 1022,2 hPa 0,0 l/m 2 min 0 min 451 W/m 12,6 km/h (3 Bft) 95,74 %
01.09.2016 10:24 19,8 C 27,2 C 22,8 C 85 % 0 lf 1022,2 hPa 0,0 l/m 2 min 0 min 475 W/m 12,6 km/h (3 Bft) 91,30 %
01.09.2016 10:26 19,8 C 27,2 C 23,3 C 85 % 0 lf 1022,1 hPa 0,0 l/m 2 min 0 min 495 W/m 14,6 km/h (3 Bft) 95,74 %
01.09.2016 10:28 19,9 C 28,3 C 23,9 C 85 % 0 lf 1022,1 hPa 0,0 l/m 2 min 0 min 530 W/m 16,7 km/h (3 Bft) 95,74 %
01.09.2016 10:30 20,0 C 27,2 C 23,9 C 85 % 0 lf 1022,1 hPa 0,0 l/m 2 min 0 min 523 W/m 18,8 km/h (3 Bft) 95,74 %
01.09.2016 10:32 20,1 C 27,2 C 23,3 C 84 % 0 lf 1022,1 hPa 0,0 l/m 2 min 0 min 548 W/m 14,6 km/h (3 Bft) 95,74 %
01.09.2016 10:34 20,2 C 28,3 C 23,9 C 84 % 0 lf 1022,0 hPa 0,0 l/m 2 min 0 min 561 W/m 10,5 km/h (2 Bft) 95,74 %
01.09.2016 10:36 20,3 C 28,9 C 23,9 C 84 % 0 lf 1022,0 hPa 0,0 l/m 2 min 0 min 532 W/m 10,5 km/h (2 Bft) 94,59 %
01.09.2016 10:38 20,4 C 28,3 C 24,4 C 84 % 0 lf 1022,0 hPa 0,0 l/m 2 min 0 min 406 W/m 6,3 km/h (2 Bft) 95,65 %
01.09.2016 10:40 20,4 C 29,4 C 25,0 C 84 % 0 lf 1022,0 hPa 0,0 l/m 2 min 0 min 491 W/m 10,5 km/h (2 Bft) 97,87 %
01.09.2016 10:42 20,6 C 30,0 C 25,6 C 85 % 0 lf 1022,0 hPa 0,0 l/m 2 min 0 min 574 W/m 10,5 km/h (2 Bft) 93,62 %
01.09.2016 10:44 20,7 C 30,6 C 25,6 C 84 % 0 lf 1022,0 hPa 0,0 l/m 2 min 0 min 565 W/m 14,6 km/h (3 Bft) 97,87 %
01.09.2016 10:46 20,8 C 30,0 C 25,0 C 83 % 0 lf 1022,0 hPa 0,0 l/m 2 min 0 min 573 W/m 18,8 km/h (3 Bft) 91,49 %
01.09.2016 10:48 20,9 C 28,9 C 23,9 C 82 % 0 lf 1021,9 hPa 0,0 l/m 2 min 0 min 575 W/m 12,6 km/h (3 Bft) 95,74 %
01.09.2016 10:50 20,9 C 30,0 C 23,3 C 82 % 0 lf 1021,9 hPa 0,0 l/m 2 min 0 min 571 W/m 10,5 km/h (2 Bft) 97,83 %
01.09.2016 10:52 21,0 C 30,6 C 22,8 C 82 % 0 lf 1022,0 hPa 0,0 l/m 2 min 0 min 585 W/m 16,7 km/h (3 Bft) 100,00 %
01.09.2016 10:54 21,1 C 30,6 C 22,2 C 81 % 0 lf 1022,0 hPa 0,0 l/m 2 min 0 min 599 W/m 12,6 km/h (3 Bft) 100,00 %
01.09.2016 10:56 21,2 C 30,6 C 22,8 C 81 % 0 lf 1022,0 hPa 0,0 l/m 2 min 0 min 611 W/m 10,5 km/h (2 Bft) 100,00 %
01.09.2016 10:58 21,3 C 31,1 C 22,8 C 81 % 0 lf 1022,0 hPa 0,0 l/m 2 min 0 min 616 W/m 14,6 km/h (3 Bft) 97,87 %
01.09.2016 11:00 21,4 C 30,0 C 23,3 C 80 % 0 lf 1022,0 hPa 0,0 l/m 2 min 0 min 621 W/m 16,7 km/h (3 Bft) 95,65 %
01.09.2016 11:02 21,6 C 28,9 C 23,9 C 79 % 0 lf 1022,0 hPa 0,0 l/m 2 min 0 min 607 W/m 18,8 km/h (3 Bft) 95,74 %
01.09.2016 11:04 21,6 C 30,0 C 24,4 C 79 % 0 lf 1022,0 hPa 0,0 l/m 2 min 0 min 591 W/m 14,6 km/h (3 Bft) 95,74 %
01.09.2016 11:06 21,7 C 30,6 C 25,0 C 79 % 0 lf 1022,0 hPa 0,0 l/m 2 min 0 min 612 W/m 16,7 km/h (3 Bft) 97,87 %
01.09.2016 11:08 21,7 C 31,1 C 26,1 C 78 % 0 lf 1022,0 hPa 0,0 l/m 2 min 0 min 612 W/m 14,6 km/h (3 Bft) 100,00 %
01.09.2016 11:10 21,8 C 31,7 C 26,1 C 78 % 0 lf 1022,0 hPa 0,0 l/m 2 min 0 min 596 W/m 12,6 km/h (3 Bft) 100,00 %
01.09.2016 11:12 21,9 C 30,6 C 26,1 C 78 % 0 lf 1022,1 hPa 0,0 l/m 2 min 0 min 604 W/m 16,7 km/h (3 Bft) 100,00 %
01.09.2016 11:14 22,0 C 31,7 C 26,7 C 78 % 0 lf 1022,0 hPa 0,0 l/m 2 min 0 min 615 W/m 18,8 km/h (3 Bft) 100,00 %
01.09.2016 11:16 22,1 C 30,6 C 27,2 C 78 % 0 lf 1022,0 hPa 0,0 l/m 2 min 0 min 611 W/m 23,0 km/h (4 Bft) 95,74 %
01.09.2016 11:18 22,1 C 31,1 C 26,7 C 77 % 0 lf 1022,0 hPa 0,0 l/m 2 min 0 min 631 W/m 16,7 km/h (3 Bft) 100,00 %
01.09.2016 11:20 22,2 C 31,1 C 27,2 C 78 % 0 lf 1022,0 hPa 0,0 l/m 2 min 0 min 635 W/m 18,8 km/h (3 Bft) 97,87 %
01.09.2016 11:22 22,3 C 30,6 C 27,2 C 77 % 0 lf 1022,0 hPa 0,0 l/m 2 min 0 min 631 W/m 23,0 km/h (4 Bft) 97,87 %
01.09.2016 11:24 22,3 C 29,4 C 26,7 C 76 % 0 lf 1022,0 hPa 0,0 l/m 2 min 0 min 641 W/m 16,7 km/h (3 Bft) 95,65 %
01.09.2016 11:26 22,4 C 31,1 C 26,7 C 76 % 0 lf 1022,0 hPa 0,0 l/m 2 min 0 min 639 W/m 18,8 km/h (3 Bft) 100,00 %
01.09.2016 11:28 22,4 C 30,6 C 27,2 C 76 % 0 lf 1022,1 hPa 0,0 l/m 2 min 0 min 641 W/m 18,8 km/h (3 Bft) 97,87 %
01.09.2016 11:30 22,5 C 30,0 C 27,2 C 76 % 0 lf 1022,1 hPa 0,0 l/m 2 min 0 min 646 W/m 18,8 km/h (3 Bft) 97,87 %
01.09.2016 11:32 22,6 C 30,6 C 27,2 C 76 % 0 lf 1022,1 hPa 0,0 l/m 2 min 0 min 641 W/m 14,6 km/h (3 Bft) 100,00 %
01.09.2016 11:34 22,6 C 31,7 C 27,8 C 76 % 0 lf 1022,1 hPa 0,0 l/m 2 min 0 min 657 W/m 12,6 km/h (3 Bft) 97,83 %
01.09.2016 11:36 22,7 C 31,7 C 27,8 C 76 % 0 lf 1022,1 hPa 0,0 l/m 2 min 0 min 677 W/m 23,0 km/h (4 Bft) 97,37 %
01.09.2016 11:38 22,8 C 31,7 C 27,8 C 76 % 0 lf 1022,1 hPa 0,0 l/m 2 min 0 min 664 W/m 23,0 km/h (4 Bft) 100,00 %
01.09.2016 11:40 22,8 C 30,6 C 27,8 C 75 % 0 lf 1022,0 hPa 0,0 l/m 2 min 0 min 644 W/m 18,8 km/h (3 Bft) 100,00 %
01.09.2016 11:42 22,9 C 30,6 C 27,2 C 76 % 0 lf 1022,0 hPa 0,0 l/m 2 min 0 min 666 W/m 23,0 km/h (4 Bft) 97,87 %
01.09.2016 11:44 22,9 C 28,9 C 27,2 C 75 % 0 lf 1022,0 hPa 0,0 l/m 0 min 0 min 305 W/m 23,0 km/h (4 Bft) 97,87 %
01.09.2016 11:46 22,9 C 28,3 C 26,7 C 75 % 0 lf 1022,0 hPa 0,0 l/m 2 min 0 min 564 W/m 16,7 km/h (3 Bft) 97,87 %
01.09.2016 11:48 23,0 C 29,4 C 26,7 C 75 % 0 lf 1022,0 hPa 0,0 l/m 2 min 0 min 553 W/m 14,6 km/h (3 Bft) 93,48 %
01.09.2016 11:50 23,0 C 30,0 C 27,2 C 75 % 0 lf 1022,0 hPa 0,0 l/m 2 min 0 min 409 W/m 16,7 km/h (3 Bft) 97,87 %
01.09.2016 11:52 23,1 C 31,1 C 27,8 C 75 % 0 lf 1022,0 hPa 0,0 l/m 2 min 0 min 360 W/m 18,8 km/h (3 Bft) 100,00 %
01.09.2016 11:54 23,2 C 31,7 C 27,8 C 75 % 0 lf 1021,9 hPa 0,0 l/m 2 min 0 min 422 W/m 20,9 km/h (4 Bft) 97,87 %
01.09.2016 11:56 23,2 C 33,3 C 28,3 C 76 % 0 lf 1021,9 hPa 0,0 l/m 2 min 0 min 535 W/m 12,6 km/h (3 Bft) 97,87 %
01.09.2016 11:58 23,3 C 32,8 C 28,3 C 76 % 0 lf 1021,9 hPa 0,0 l/m 2 min 0 min 534 W/m 18,8 km/h (3 Bft) 97,87 %
01.09.2016 12:00 23,4 C 31,7 C 27,8 C 75 % 0 lf 1021,9 hPa 0,0 l/m 2 min 0 min 563 W/m 18,8 km/h (3 Bft) 91,30 %
01.09.2016 12:02 23,5 C 32,2 C 28,3 C 75 % 0 lf 1021,9 hPa 0,0 l/m 2 min 0 min 687 W/m 16,7 km/h (3 Bft) 93,62 %
01.09.2016 12:04 23,6 C 32,2 C 28,9 C 74 % 0 lf 1021,9 hPa 0,0 l/m 2 min 0 min 659 W/m 12,6 km/h (3 Bft) 97,87 %
01.09.2016 12:06 23,6 C 32,2 C 28,9 C 74 % 0 lf 1021,9 hPa 0,0 l/m 0 min 0 min 268 W/m 12,6 km/h (3 Bft) 90,57 %
01.09.2016 12:08 23,6 C 32,8 C 28,9 C 75 % 0 lf 1021,9 hPa 0,0 l/m 2 min 0 min 493 W/m 12,6 km/h (3 Bft) 95,74 %
01.09.2016 12:10 23,7 C 32,8 C 28,9 C 75 % 0 lf 1021,9 hPa 0,0 l/m 2 min 0 min 700 W/m 25,1 km/h (4 Bft) 95,74 %
01.09.2016 12:12 23,7 C 32,2 C 28,9 C 74 % 0 lf 1021,9 hPa 0,0 l/m 2 min 0 min 719 W/m 18,8 km/h (3 Bft) 91,30 %
01.09.2016 12:14 23,7 C 31,7 C 28,3 C 74 % 0 lf 1021,9 hPa 0,0 l/m 2 min 0 min 731 W/m 25,1 km/h (4 Bft) 93,62 %
01.09.2016 12:16 23,8 C 31,1 C 28,3 C 73 % 0 lf 1021,9 hPa 0,0 l/m 2 min 0 min 763 W/m 18,8 km/h (3 Bft) 92,68 %
01.09.2016 12:18 23,8 C 30,6 C 28,3 C 74 % 0 lf 1021,8 hPa 0,0 l/m 2 min 0 min 821 W/m 16,7 km/h (3 Bft) 93,62 %
01.09.2016 12:20 23,9 C 32,2 C 28,3 C 74 % 0 lf 1021,9 hPa 0,0 l/m 2 min 0 min 828 W/m 16,7 km/h (3 Bft) 91,49 %
01.09.2016 12:22 23,9 C 32,8 C 28,3 C 73 % 0 lf 1021,8 hPa 0,0 l/m 2 min 0 min 816 W/m 20,9 km/h (4 Bft) 95,74 %
01.09.2016 12:24 24,0 C 32,2 C 27,2 C 73 % 0 lf 1021,8 hPa 0,0 l/m 2 min 0 min 781 W/m 18,8 km/h (3 Bft) 89,13 %
01.09.2016 12:26 24,1 C 32,2 C 26,7 C 73 % 0 lf 1021,8 hPa 0,0 l/m 2 min 0 min 678 W/m 20,9 km/h (4 Bft) 93,62 %
01.09.2016 12:28 24,1 C 31,1 C 25,6 C 72 % 0 lf 1021,8 hPa 0,0 l/m 2 min 0 min 376 W/m 12,6 km/h (3 Bft) 92,45 %
01.09.2016 12:30 24,1 C 28,9 C 25,0 C 72 % 0 lf 1021,8 hPa 0,0 l/m 0 min 0 min 239 W/m 18,8 km/h (3 Bft) 91,49 %
01.09.2016 12:32 24,1 C 28,3 C 24,4 C 72 % 0 lf 1021,8 hPa 0,0 l/m 0 min 0 min 227 W/m 18,8 km/h (3 Bft) 89,58 %
01.09.2016 12:34 24,0 C 29,4 C 25,0 C 72 % 0 lf 1021,8 hPa 0,0 l/m 0 min 0 min 227 W/m 14,6 km/h (3 Bft) 91,30 %
01.09.2016 12:36 24,0 C 28,9 C 24,4 C 72 % 0 lf 1021,8 hPa 0,0 l/m 2 min 0 min 719 W/m 16,7 km/h (3 Bft) 93,62 %
01.09.2016 12:38 23,9 C 27,2 C 23,9 C 72 % 0 lf 1021,8 hPa 0,0 l/m 0 min 0 min 237 W/m 12,6 km/h (3 Bft) 93,62 %
01.09.2016 12:40 23,9 C 26,7 C 23,3 C 72 % 0 lf 1021,8 hPa 0,0 l/m 0 min 0 min 250 W/m 16,7 km/h (3 Bft) 91,49 %
01.09.2016 12:42 23,8 C 26,7 C 23,9 C 72 % 0 lf 1021,8 hPa 0,0 l/m 0 min 0 min 337 W/m 12,6 km/h (3 Bft) 91,49 %
01.09.2016 12:44 23,8 C 27,2 C 23,9 C 73 % 0 lf 1021,7 hPa 0,0 l/m 2 min 0 min 364 W/m 12,6 km/h (3 Bft) 91,30 %
01.09.2016 12:46 23,8 C 30,0 C 24,4 C 72 % 0 lf 1021,7 hPa 0,0 l/m 2 min 0 min 537 W/m 16,7 km/h (3 Bft) 89,13 %
01.09.2016 12:48 23,8 C 30,6 C 25,0 C 72 % 0 lf 1021,7 hPa 0,0 l/m 2 min 0 min 812 W/m 14,6 km/h (3 Bft) 95,74 %
01.09.2016 12:50 23,9 C 31,7 C 25,6 C 72 % 0 lf 1021,6 hPa 0,0 l/m 2 min 0 min 799 W/m 10,5 km/h (2 Bft) 93,62 %
01.09.2016 12:52 24,0 C 32,8 C 25,6 C 73 % 0 lf 1021,5 hPa 0,0 l/m 2 min 0 min 789 W/m 27,2 km/h (4 Bft) 95,74 %
01.09.2016 12:54 24,1 C 33,3 C 26,1 C 72 % 0 lf 1021,5 hPa 0,0 l/m 2 min 0 min 801 W/m 14,6 km/h (3 Bft) 93,62 %
01.09.2016 12:56 24,2 C 32,8 C 27,2 C 72 % 0 lf 1021,5 hPa 0,0 l/m 2 min 0 min 781 W/m 12,6 km/h (3 Bft) 95,74 %
01.09.2016 12:58 24,3 C 33,3 C 27,8 C 71 % 0 lf 1021,5 hPa 0,0 l/m 2 min 0 min 805 W/m 18,8 km/h (3 Bft) 95,65 %
01.09.2016 13:00 24,3 C 32,8 C 27,8 C 70 % 0 lf 1021,6 hPa 0,0 l/m 2 min 0 min 790 W/m 16,7 km/h (3 Bft) 93,62 %
01.09.2016 13:02 24,4 C 32,8 C 27,8 C 71 % 0 lf 1021,6 hPa 0,0 l/m 2 min 0 min 810 W/m 16,7 km/h (3 Bft) 89,36 %
01.09.2016 13:04 24,6 C 33,9 C 27,8 C 70 % 0 lf 1021,5 hPa 0,0 l/m 2 min 0 min 819 W/m 23,0 km/h (4 Bft) 95,74 %
01.09.2016 13:06 24,7 C 34,4 C 27,8 C 70 % 0 lf 1021,5 hPa 0,0 l/m 2 min 0 min 829 W/m 16,7 km/h (3 Bft) 95,74 %
01.09.2016 13:08 24,8 C 33,9 C 27,2 C 70 % 0 lf 1021,5 hPa 0,0 l/m 2 min 0 min 829 W/m 18,8 km/h (3 Bft) 97,87 %
01.09.2016 13:10 24,9 C 32,2 C 26,7 C 69 % 0 lf 1021,5 hPa 0,0 l/m 2 min 0 min 830 W/m 18,8 km/h (3 Bft) 95,65 %
01.09.2016 13:12 24,9 C 31,1 C 25,6 C 68 % 0 lf 1021,5 hPa 0,0 l/m 2 min 0 min 452 W/m 18,8 km/h (3 Bft) 97,87 %
01.09.2016 13:14 24,9 C 32,2 C 25,6 C 67 % 0 lf 1021,5 hPa 0,0 l/m 2 min 0 min 568 W/m 25,1 km/h (4 Bft) 95,74 %
01.09.2016 13:16 25,0 C 32,8 C 25,6 C 68 % 0 lf 1021,6 hPa 0,0 l/m 2 min 0 min 876 W/m 18,8 km/h (3 Bft) 97,87 %
01.09.2016 13:18 25,1 C 33,3 C 25,6 C 67 % 0 lf 1021,6 hPa 0,0 l/m 2 min 0 min 843 W/m 18,8 km/h (3 Bft) 95,74 %
01.09.2016 13:20 25,1 C 33,9 C 25,6 C 67 % 0 lf 1021,5 hPa 0,0 l/m 2 min 0 min 836 W/m 16,7 km/h (3 Bft) 97,83 %
01.09.2016 13:22 25,2 C 34,4 C 26,1 C 67 % 0 lf 1021,5 hPa 0,0 l/m 2 min 0 min 855 W/m 25,1 km/h (4 Bft) 95,74 %
01.09.2016 13:24 25,3 C 35,0 C 26,1 C 66 % 0 lf 1021,5 hPa 0,0 l/m 2 min 0 min 891 W/m 20,9 km/h (4 Bft) 95,74 %
01.09.2016 13:26 25,3 C 32,2 C 25,6 C 66 % 0 lf 1021,4 hPa 0,0 l/m 2 min 0 min 891 W/m 18,8 km/h (3 Bft) 100,00 %
01.09.2016 13:28 25,4 C 33,3 C 25,6 C 66 % 0 lf 1021,5 hPa 0,0 l/m 2 min 0 min 819 W/m 20,9 km/h (4 Bft) 100,00 %
01.09.2016 13:30 25,4 C 31,1 C 25,0 C 66 % 0 lf 1021,4 hPa 0,0 l/m 2 min 0 min 449 W/m 14,6 km/h (3 Bft) 100,00 %
01.09.2016 13:32 25,4 C 31,1 C 24,4 C 65 % 0 lf 1021,4 hPa 0,0 l/m 0 min 0 min 188 W/m 12,6 km/h (3 Bft) 97,87 %
01.09.2016 13:34 25,4 C 33,3 C 25,0 C 66 % 0 lf 1021,4 hPa 0,0 l/m 2 min 0 min 748 W/m 10,5 km/h (2 Bft) 97,87 %
01.09.2016 13:36 25,5 C 34,4 C 25,6 C 67 % 0 lf 1021,4 hPa 0,0 l/m 2 min 0 min 836 W/m 12,6 km/h (3 Bft) 98,00 %
01.09.2016 13:38 25,6 C 34,4 C 25,6 C 66 % 0 lf 1021,4 hPa 0,0 l/m 2 min 0 min 832 W/m 20,9 km/h (4 Bft) 100,00 %
01.09.2016 13:40 25,6 C 32,2 C 25,6 C 65 % 0 lf 1021,4 hPa 0,0 l/m 2 min 0 min 855 W/m 18,8 km/h (3 Bft) 100,00 %
01.09.2016 13:42 25,7 C 31,7 C 25,6 C 65 % 0 lf 1021,4 hPa 0,0 l/m 2 min 0 min 870 W/m 27,2 km/h (4 Bft) 100,00 %
01.09.2016 13:44 25,7 C 32,8 C 25,6 C 65 % 0 lf 1021,3 hPa 0,0 l/m 2 min 0 min 862 W/m 16,7 km/h (3 Bft) 95,74 %
01.09.2016 13:46 25,7 C 32,8 C 25,6 C 65 % 0 lf 1021,4 hPa 0,0 l/m 2 min 0 min 845 W/m 14,6 km/h (3 Bft) 100,00 %
01.09.2016 13:48 25,7 C 33,9 C 25,6 C 65 % 0 lf 1021,3 hPa 0,0 l/m 2 min 0 min 850 W/m 16,7 km/h (3 Bft) 95,74 %
01.09.2016 13:50 25,8 C 33,9 C 25,6 C 65 % 0 lf 1021,4 hPa 0,0 l/m 2 min 0 min 855 W/m 23,0 km/h (4 Bft) 100,00 %
01.09.2016 13:52 25,8 C 33,3 C 25,6 C 64 % 0 lf 1021,3 hPa 0,0 l/m 2 min 0 min 758 W/m 14,6 km/h (3 Bft) 97,87 %
01.09.2016 13:54 25,8 C 32,8 C 25,6 C 64 % 0 lf 1021,4 hPa 0,0 l/m 2 min 0 min 789 W/m 18,8 km/h (3 Bft) 95,65 %
01.09.2016 13:56 25,8 C 32,8 C 25,6 C 64 % 0 lf 1021,3 hPa 0,0 l/m 2 min 0 min 814 W/m 23,0 km/h (4 Bft) 100,00 %
01.09.2016 13:58 25,8 C 31,1 C 25,0 C 64 % 0 lf 1021,3 hPa 0,0 l/m 2 min 0 min 780 W/m 20,9 km/h (4 Bft) 97,87 %
01.09.2016 14:00 25,7 C 28,3 C 24,4 C 62 % 0 lf 1021,3 hPa 0,0 l/m 0 min 0 min 212 W/m 18,8 km/h (3 Bft) 100,00 %
01.09.2016 14:02 25,6 C 27,8 C 23,9 C 63 % 0 lf 1021,3 hPa 0,0 l/m 0 min 0 min 232 W/m 23,0 km/h (4 Bft) 95,74 %
01.09.2016 14:04 25,5 C 27,8 C 23,9 C 64 % 0 lf 1021,2 hPa 0,0 l/m 0 min 0 min 309 W/m 16,7 km/h (3 Bft) 97,87 %
01.09.2016 14:06 25,4 C 28,9 C 24,4 C 65 % 0 lf 1021,3 hPa 0,0 l/m 0 min 0 min 276 W/m 23,0 km/h (4 Bft) 97,22 %
01.09.2016 14:08 25,3 C 28,9 C 24,4 C 65 % 0 lf 1021,3 hPa 0,0 l/m 0 min 0 min 278 W/m 23,0 km/h (4 Bft) 97,87 %
01.09.2016 14:10 25,2 C 28,3 C 24,4 C 65 % 0 lf 1021,3 hPa 0,0 l/m 2 min 0 min 726 W/m 16,7 km/h (3 Bft) 100,00 %
01.09.2016 14:12 25,1 C 29,4 C 23,9 C 66 % 0 lf 1021,3 hPa 0,0 l/m 0 min 0 min 197 W/m 20,9 km/h (4 Bft) 100,00 %
01.09.2016 14:14 25,1 C 30,6 C 24,4 C 67 % 0 lf 1021,2 hPa 0,0 l/m 2 min 0 min 624 W/m 16,7 km/h (3 Bft) 97,87 %
01.09.2016 14:16 25,1 C 31,7 C 24,4 C 67 % 0 lf 1021,2 hPa 0,0 l/m 2 min 0 min 715 W/m 18,8 km/h (3 Bft) 100,00 %
01.09.2016 14:18 25,1 C 31,1 C 24,4 C 67 % 0 lf 1021,3 hPa 0,0 l/m 2 min 0 min 754 W/m 18,8 km/h (3 Bft) 95,74 %
01.09.2016 14:20 25,1 C 31,1 C 24,4 C 67 % 0 lf 1021,2 hPa 0,0 l/m 2 min 0 min 740 W/m 18,8 km/h (3 Bft) 97,87 %
01.09.2016 14:22 25,1 C 31,1 C 24,4 C 66 % 0 lf 1021,2 hPa 0,0 l/m 2 min 0 min 732 W/m 25,1 km/h (4 Bft) 95,65 %
01.09.2016 14:24 25,2 C 31,7 C 24,4 C 66 % 0 lf 1021,2 hPa 0,0 l/m 2 min 0 min 740 W/m 18,8 km/h (3 Bft) 95,74 %
01.09.2016 14:26 25,2 C 32,8 C 25,0 C 66 % 0 lf 1021,2 hPa 0,0 l/m 2 min 0 min 687 W/m 23,0 km/h (4 Bft) 97,87 %
01.09.2016 14:28 25,3 C 32,8 C 25,0 C 66 % 0 lf 1021,3 hPa 0,0 l/m 2 min 0 min 777 W/m 20,9 km/h (4 Bft) 97,87 %
01.09.2016 14:30 25,4 C 35,0 C 25,6 C 66 % 0 lf 1021,2 hPa 0,0 l/m 2 min 0 min 784 W/m 16,7 km/h (3 Bft) 95,74 %
01.09.2016 14:32 25,4 C 35,0 C 25,6 C 63 % 0 lf 1021,2 hPa 0,0 l/m 2 min 0 min 781 W/m 23,0 km/h (4 Bft) 95,65 %
01.09.2016 14:34 25,6 C 34,4 C 25,6 C 64 % 0 lf 1021,2 hPa 0,0 l/m 2 min 0 min 796 W/m 16,7 km/h (3 Bft) 97,87 %
01.09.2016 14:36 25,7 C 33,3 C 25,6 C 63 % 0 lf 1021,2 hPa 0,0 l/m 2 min 0 min 811 W/m 27,2 km/h (4 Bft) 97,87 %
01.09.2016 14:38 25,7 C 33,9 C 25,6 C 63 % 0 lf 1021,2 hPa 0,0 l/m 2 min 0 min 818 W/m 14,6 km/h (3 Bft) 97,87 %
01.09.2016 14:40 25,8 C 32,8 C 25,6 C 64 % 0 lf 1021,2 hPa 0,0 l/m 2 min 0 min 828 W/m 23,0 km/h (4 Bft) 97,87 %
01.09.2016 14:42 25,9 C 33,3 C 26,1 C 64 % 0 lf 1021,2 hPa 0,0 l/m 2 min 0 min 832 W/m 16,7 km/h (3 Bft) 93,62 %
01.09.2016 14:44 26,0 C 33,3 C 26,7 C 63 % 0 lf 1021,1 hPa 0,0 l/m 2 min 0 min 790 W/m 27,2 km/h (4 Bft) 97,83 %
01.09.2016 14:46 26,1 C 33,9 C 27,8 C 62 % 0 lf 1021,1 hPa 0,0 l/m 2 min 0 min 779 W/m 23,0 km/h (4 Bft) 97,87 %
01.09.2016 14:48 26,1 C 33,3 C 28,9 C 62 % 0 lf 1021,1 hPa 0,0 l/m 2 min 0 min 767 W/m 20,9 km/h (4 Bft) 93,62 %
01.09.2016 14:50 26,2 C 31,1 C 27,2 C 63 % 0 lf 1021,1 hPa 0,0 l/m 2 min 0 min 520 W/m 20,9 km/h (4 Bft) 98,11 %
01.09.2016 14:52 26,2 C 32,2 C 27,8 C 63 % 0 lf 1021,1 hPa 0,0 l/m 0 min 0 min 297 W/m 25,1 km/h (4 Bft) 100,00 %
01.09.2016 14:54 26,2 C 31,1 C 27,8 C 64 % 0 lf 1021,1 hPa 0,0 l/m 2 min 0 min 807 W/m 18,8 km/h (3 Bft) 97,83 %
01.09.2016 14:56 26,1 C 31,1 C 27,8 C 64 % 0 lf 1021,1 hPa 0,0 l/m 2 min 0 min 807 W/m 12,6 km/h (3 Bft) 97,87 %
01.09.2016 14:58 26,1 C 30,0 C 27,8 C 64 % 0 lf 1021,1 hPa 0,0 l/m 2 min 0 min 587 W/m 12,6 km/h (3 Bft) 95,74 %
01.09.2016 15:00 26,1 C 32,2 C 30,0 C 64 % 0 lf 1021,1 hPa 0,0 l/m 2 min 0 min 520 W/m 12,6 km/h (3 Bft) 100,00 %
01.09.2016 15:02 26,1 C 33,9 C 31,7 C 64 % 0 lf 1021,1 hPa 0,0 l/m 2 min 0 min 905 W/m 20,9 km/h (4 Bft) 100,00 %
01.09.2016 15:04 26,2 C 33,9 C 31,7 C 64 % 0 lf 1021,1 hPa 0,0 l/m 2 min 0 min 796 W/m 16,7 km/h (3 Bft) 97,87 %
01.09.2016 15:06 26,2 C 32,8 C 30,6 C 63 % 0 lf 1021,1 hPa 0,0 l/m 2 min 0 min 566 W/m 16,7 km/h (3 Bft) 97,96 %
01.09.2016 15:08 26,3 C 34,4 C 31,1 C 63 % 0 lf 1021,1 hPa 0,0 l/m 2 min 0 min 630 W/m 23,0 km/h (4 Bft) 100,00 %
01.09.2016 15:10 26,4 C 34,4 C 29,4 C 63 % 0 lf 1021,1 hPa 0,0 l/m 2 min 0 min 857 W/m 14,6 km/h (3 Bft) 100,00 %
01.09.2016 15:12 26,4 C 35,0 C 28,9 C 63 % 0 lf 1021,1 hPa 0,0 l/m 2 min 0 min 821 W/m 20,9 km/h (4 Bft) 93,62 %
01.09.2016 15:14 26,5 C 32,8 C 28,3 C 62 % 0 lf 1021,1 hPa 0,0 l/m 2 min 0 min 824 W/m 20,9 km/h (4 Bft) 93,62 %
01.09.2016 15:16 26,5 C 32,2 C 27,8 C 62 % 0 lf 1021,2 hPa 0,0 l/m 2 min 0 min 359 W/m 20,9 km/h (4 Bft) 95,65 %
01.09.2016 15:18 26,5 C 33,3 C 27,8 C 62 % 0 lf 1021,1 hPa 0,0 l/m 2 min 0 min 748 W/m 16,7 km/h (3 Bft) 93,62 %
01.09.2016 15:20 26,5 C 32,2 C 27,8 C 62 % 0 lf 1021,1 hPa 0,0 l/m 2 min 0 min 712 W/m 14,6 km/h (3 Bft) 93,62 %
01.09.2016 15:22 26,6 C 32,2 C 28,3 C 63 % 0 lf 1021,1 hPa 0,0 l/m 2 min 0 min 467 W/m 14,6 km/h (3 Bft) 93,62 %
01.09.2016 15:24 26,6 C 32,2 C 28,3 C 63 % 0 lf 1021,1 hPa 0,0 l/m 2 min 0 min 580 W/m 16,7 km/h (3 Bft) 91,49 %
01.09.2016 15:26 26,6 C 32,2 C 28,3 C 61 % 0 lf 1021,1 hPa 0,0 l/m 2 min 0 min 468 W/m 16,7 km/h (3 Bft) 93,62 %
01.09.2016 15:28 26,6 C 33,3 C 28,3 C 62 % 0 lf 1021,1 hPa 0,0 l/m 2 min 0 min 622 W/m 16,7 km/h (3 Bft) 93,48 %
01.09.2016 15:30 26,6 C 32,8 C 28,9 C 62 % 0 lf 1021,1 hPa 0,0 l/m 2 min 0 min 773 W/m 25,1 km/h (4 Bft) 93,62 %
01.09.2016 15:32 26,6 C 33,3 C 28,9 C 62 % 0 lf 1021,1 hPa 0,0 l/m 2 min 0 min 737 W/m 23,0 km/h (4 Bft) 93,75 %
01.09.2016 15:34 26,6 C 33,3 C 27,8 C 62 % 0 lf 1021,1 hPa 0,0 l/m 2 min 0 min 688 W/m 18,8 km/h (3 Bft) 93,62 %
01.09.2016 15:36 26,6 C 33,3 C 27,8 C 62 % 0 lf 1021,2 hPa 0,0 l/m 2 min 0 min 681 W/m 23,0 km/h (4 Bft) 88,89 %
01.09.2016 15:38 26,6 C 33,3 C 27,8 C 62 % 0 lf 1021,1 hPa 0,0 l/m 2 min 0 min 682 W/m 20,9 km/h (4 Bft) 91,49 %
01.09.2016 15:40 26,5 C 33,9 C 27,2 C 62 % 0 lf 1021,1 hPa 0,0 l/m 2 min 0 min 675 W/m 18,8 km/h (3 Bft) 91,49 %
01.09.2016 15:42 26,4 C 33,3 C 26,7 C 61 % 0 lf 1021,1 hPa 0,0 l/m 2 min 0 min 674 W/m 27,2 km/h (4 Bft) 93,62 %
01.09.2016 15:44 26,4 C 33,3 C 27,2 C 61 % 0 lf 1021,1 hPa 0,0 l/m 2 min 0 min 681 W/m 27,2 km/h (4 Bft) 93,48 %
01.09.2016 15:46 26,4 C 34,4 C 27,2 C 62 % 0 lf 1021,1 hPa 0,0 l/m 2 min 0 min 659 W/m 18,8 km/h (3 Bft) 93,62 %
01.09.2016 15:48 26,4 C 34,4 C 27,8 C 62 % 0 lf 1021,2 hPa 0,0 l/m 2 min 0 min 629 W/m 16,7 km/h (3 Bft) 93,62 %
01.09.2016 15:50 26,4 C 34,4 C 27,2 C 62 % 0 lf 1021,2 hPa 0,0 l/m 2 min 0 min 632 W/m 23,0 km/h (4 Bft) 91,49 %
01.09.2016 15:52 26,4 C 34,4 C 27,2 C 63 % 0 lf 1021,1 hPa 0,0 l/m 2 min 0 min 643 W/m 14,6 km/h (3 Bft) 89,36 %
01.09.2016 15:54 26,4 C 33,3 C 27,2 C 62 % 0 lf 1021,1 hPa 0,0 l/m 2 min 0 min 655 W/m 12,6 km/h (3 Bft) 93,62 %
01.09.2016 15:56 26,4 C 32,2 C 26,7 C 62 % 0 lf 1021,1 hPa 0,0 l/m 2 min 0 min 649 W/m 23,0 km/h (4 Bft) 93,48 %
01.09.2016 15:58 26,4 C 31,7 C 26,7 C 62 % 0 lf 1021,1 hPa 0,0 l/m 2 min 0 min 670 W/m 25,1 km/h (4 Bft) 91,49 %
01.09.2016 16:00 26,4 C 32,8 C 26,1 C 63 % 0 lf 1021,2 hPa 0,0 l/m 2 min 0 min 494 W/m 12,6 km/h (3 Bft) 95,74 %
01.09.2016 16:02 26,4 C 32,8 C 26,7 C 62 % 0 lf 1021,1 hPa 0,0 l/m 2 min 0 min 740 W/m 20,9 km/h (4 Bft) 95,74 %
01.09.2016 16:04 26,4 C 32,8 C 26,1 C 62 % 0 lf 1021,0 hPa 0,0 l/m 2 min 0 min 763 W/m 16,7 km/h (3 Bft) 87,23 %
01.09.2016 16:06 26,4 C 34,4 C 26,1 C 63 % 0 lf 1020,9 hPa 0,0 l/m 2 min 0 min 699 W/m 18,8 km/h (3 Bft) 94,55 %
01.09.2016 16:08 26,4 C 33,9 C 26,1 C 62 % 0 lf 1020,9 hPa 0,0 l/m 2 min 0 min 649 W/m 20,9 km/h (4 Bft) 93,62 %
01.09.2016 16:10 26,4 C 32,8 C 26,1 C 62 % 0 lf 1021,0 hPa 0,0 l/m 2 min 0 min 628 W/m 14,6 km/h (3 Bft) 93,62 %
01.09.2016 16:12 26,4 C 31,7 C 25,6 C 61 % 0 lf 1021,0 hPa 0,0 l/m 2 min 0 min 310 W/m 14,6 km/h (3 Bft) 93,62 %
01.09.2016 16:14 26,3 C 31,1 C 25,6 C 62 % 0 lf 1021,0 hPa 0,0 l/m 2 min 0 min 480 W/m 16,7 km/h (3 Bft) 93,62 %
01.09.2016 16:16 26,3 C 30,0 C 25,0 C 61 % 0 lf 1021,0 hPa 0,0 l/m 2 min 0 min 332 W/m 18,8 km/h (3 Bft) 95,65 %
01.09.2016 16:18 26,2 C 28,9 C 24,4 C 62 % 0 lf 1021,1 hPa 0,0 l/m 0 min 0 min 243 W/m 16,7 km/h (3 Bft) 93,62 %
01.09.2016 16:20 26,1 C 27,8 C 24,4 C 62 % 0 lf 1021,1 hPa 0,0 l/m 0 min 0 min 248 W/m 12,6 km/h (3 Bft) 97,87 %
01.09.2016 16:22 26,0 C 27,8 C 24,4 C 63 % 0 lf 1021,1 hPa 0,0 l/m 0 min 0 min 186 W/m 14,6 km/h (3 Bft) 97,87 %
01.09.2016 16:24 25,9 C 27,2 C 23,9 C 63 % 0 lf 1021,1 hPa 0,0 l/m 0 min 0 min 158 W/m 14,6 km/h (3 Bft) 95,74 %
01.09.2016 16:26 25,8 C 26,7 C 23,9 C 64 % 0 lf 1021,1 hPa 0,0 l/m 0 min 0 min 156 W/m 14,6 km/h (3 Bft) 97,87 %
01.09.2016 16:28 25,7 C 26,7 C 23,3 C 64 % 0 lf 1021,2 hPa 0,0 l/m 0 min 0 min 164 W/m 12,6 km/h (3 Bft) 97,83 %
01.09.2016 16:30 25,6 C 26,7 C 23,3 C 64 % 0 lf 1021,1 hPa 0,0 l/m 0 min 0 min 179 W/m 20,9 km/h (4 Bft) 97,87 %
01.09.2016 16:32 25,5 C 26,7 C 23,3 C 64 % 0 lf 1021,1 hPa 0,0 l/m 0 min 0 min 206 W/m 16,7 km/h (3 Bft) 95,74 %
01.09.2016 16:34 25,4 C 26,1 C 23,9 C 65 % 0 lf 1021,1 hPa 0,0 l/m 0 min 0 min 215 W/m 20,9 km/h (4 Bft) 97,87 %
01.09.2016 16:36 25,3 C 26,1 C 23,3 C 65 % 0 lf 1021,1 hPa 0,0 l/m 0 min 0 min 213 W/m 18,8 km/h (3 Bft) 100,00 %
01.09.2016 16:38 25,2 C 27,8 C 23,9 C 65 % 0 lf 1021,1 hPa 0,0 l/m 0 min 0 min 225 W/m 12,6 km/h (3 Bft) 95,74 %
01.09.2016 16:40 25,1 C 28,9 C 23,9 C 66 % 0 lf 1021,1 hPa 0,0 l/m 2 min 0 min 453 W/m 16,7 km/h (3 Bft) 97,87 %
01.09.2016 16:42 25,1 C 30,0 C 24,4 C 66 % 0 lf 1021,1 hPa 0,0 l/m 2 min 0 min 547 W/m 12,6 km/h (3 Bft) 97,83 %
01.09.2016 16:44 25,1 C 30,0 C 24,4 C 66 % 0 lf 1021,1 hPa 0,0 l/m 2 min 0 min 526 W/m 23,0 km/h (4 Bft) 97,87 %
01.09.2016 16:46 25,1 C 30,6 C 24,4 C 66 % 0 lf 1021,1 hPa 0,0 l/m 2 min 0 min 511 W/m 25,1 km/h (4 Bft) 95,74 %
01.09.2016 16:48 25,0 C 29,4 C 23,9 C 66 % 0 lf 1021,1 hPa 0,0 l/m 2 min 0 min 522 W/m 18,8 km/h (3 Bft) 97,87 %
01.09.2016 16:50 24,9 C 30,0 C 23,9 C 67 % 0 lf 1021,1 hPa 0,0 l/m 2 min 0 min 490 W/m 18,8 km/h (3 Bft) 95,74 %
01.09.2016 16:52 24,9 C 30,0 C 23,9 C 66 % 0 lf 1021,1 hPa 0,0 l/m 2 min 0 min 537 W/m 16,7 km/h (3 Bft) 100,00 %
01.09.2016 16:54 25,0 C 30,6 C 24,4 C 66 % 0 lf 1021,1 hPa 0,0 l/m 2 min 0 min 540 W/m 14,6 km/h (3 Bft) 97,83 %
01.09.2016 16:56 25,0 C 29,4 C 23,9 C 66 % 0 lf 1021,1 hPa 0,0 l/m 2 min 0 min 523 W/m 29,3 km/h (5 Bft) 95,74 %
01.09.2016 16:58 24,9 C 27,8 C 23,9 C 65 % 0 lf 1021,1 hPa 0,0 l/m 0 min 0 min 243 W/m 16,7 km/h (3 Bft) 100,00 %
01.09.2016 17:00 24,9 C 26,7 C 23,9 C 65 % 0 lf 1021,1 hPa 0,0 l/m 0 min 0 min 161 W/m 10,5 km/h (2 Bft) 97,87 %
01.09.2016 17:02 24,9 C 27,2 C 23,9 C 65 % 0 lf 1021,1 hPa 0,0 l/m 0 min 0 min 214 W/m 10,5 km/h (2 Bft) 100,00 %
01.09.2016 17:04 24,9 C 27,2 C 24,4 C 65 % 0 lf 1021,1 hPa 0,0 l/m 0 min 0 min 206 W/m 12,6 km/h (3 Bft) 100,00 %
01.09.2016 17:06 24,8 C 26,1 C 23,9 C 65 % 0 lf 1021,0 hPa 0,0 l/m 0 min 0 min 182 W/m 16,7 km/h (3 Bft) 100,00 %
01.09.2016 17:08 24,8 C 25,6 C 23,3 C 65 % 0 lf 1021,1 hPa 0,0 l/m 0 min 0 min 162 W/m 18,8 km/h (3 Bft) 100,00 %
01.09.2016 17:10 24,7 C 25,6 C 23,3 C 65 % 0 lf 1021,1 hPa 0,0 l/m 0 min 0 min 151 W/m 16,7 km/h (3 Bft) 100,00 %
01.09.2016 17:12 24,6 C 25,0 C 23,3 C 65 % 0 lf 1021,1 hPa 0,0 l/m 0 min 0 min 143 W/m 23,0 km/h (4 Bft) 100,00 %
01.09.2016 17:14 24,6 C 25,0 C 23,3 C 65 % 0 lf 1021,2 hPa 0,0 l/m 0 min 0 min 148 W/m 10,5 km/h (2 Bft) 97,87 %
01.09.2016 17:16 24,5 C 25,0 C 23,3 C 66 % 0 lf 1021,2 hPa 0,0 l/m 0 min 0 min 158 W/m 16,7 km/h (3 Bft) 100,00 %
01.09.2016 17:18 24,4 C 25,0 C 23,3 C 66 % 0 lf 1021,2 hPa 0,0 l/m 0 min 0 min 165 W/m 18,8 km/h (3 Bft) 98,11 %
01.09.2016 17:20 24,4 C 25,0 C 23,3 C 66 % 0 lf 1021,2 hPa 0,0 l/m 0 min 0 min 177 W/m 10,5 km/h (2 Bft) 100,00 %
01.09.2016 17:22 24,3 C 25,0 C 23,3 C 67 % 0 lf 1021,1 hPa 0,0 l/m 0 min 0 min 185 W/m 10,5 km/h (2 Bft) 100,00 %
01.09.2016 17:24 24,3 C 26,1 C 23,3 C 67 % 0 lf 1021,2 hPa 0,0 l/m 2 min 0 min 246 W/m 16,7 km/h (3 Bft) 100,00 %
01.09.2016 17:26 24,2 C 26,1 C 23,3 C 67 % 0 lf 1021,2 hPa 0,0 l/m 2 min 0 min 250 W/m 18,8 km/h (3 Bft) 100,00 %
01.09.2016 17:28 24,2 C 26,1 C 23,3 C 67 % 0 lf 1021,0 hPa 0,0 l/m 2 min 0 min 235 W/m 18,8 km/h (3 Bft) 93,62 %
01.09.2016 17:30 24,2 C 26,1 C 23,3 C 67 % 0 lf 1021,1 hPa 0,0 l/m 2 min 0 min 261 W/m 16,7 km/h (3 Bft) 93,62 %
01.09.2016 17:32 24,1 C 26,7 C 23,3 C 67 % 0 lf 1021,1 hPa 0,0 l/m 2 min 0 min 364 W/m 23,0 km/h (4 Bft) 95,83 %
01.09.2016 17:34 24,1 C 26,1 C 23,3 C 68 % 0 lf 1021,1 hPa 0,0 l/m 2 min 0 min 301 W/m 12,6 km/h (3 Bft) 100,00 %
01.09.2016 17:36 24,1 C 26,1 C 23,3 C 68 % 0 lf 1021,1 hPa 0,0 l/m 0 min 0 min 199 W/m 18,8 km/h (3 Bft) 100,00 %
01.09.2016 17:38 24,1 C 25,6 C 23,3 C 68 % 0 lf 1021,1 hPa 0,0 l/m 0 min 0 min 192 W/m 12,6 km/h (3 Bft) 93,48 %
01.09.2016 17:40 24,1 C 25,6 C 23,3 C 68 % 0 lf 1021,1 hPa 0,0 l/m 0 min 0 min 186 W/m 16,7 km/h (3 Bft) 100,00 %
01.09.2016 17:42 24,1 C 25,6 C 23,3 C 68 % 0 lf 1021,1 hPa 0,0 l/m 0 min 0 min 181 W/m 8,4 km/h (2 Bft) 100,00 %
01.09.2016 17:44 24,0 C 25,0 C 23,3 C 69 % 0 lf 1021,1 hPa 0,0 l/m 0 min 0 min 136 W/m 16,7 km/h (3 Bft) 100,00 %
01.09.2016 17:46 24,0 C 25,0 C 22,8 C 68 % 0 lf 1021,1 hPa 0,0 l/m 0 min 0 min 120 W/m 16,7 km/h (3 Bft) 100,00 %
01.09.2016 17:48 23,9 C 24,4 C 22,8 C 68 % 0 lf 1021,1 hPa 0,0 l/m 0 min 0 min 140 W/m 18,8 km/h (3 Bft) 97,87 %
01.09.2016 17:50 23,9 C 24,4 C 22,8 C 68 % 0 lf 1021,1 hPa 0,0 l/m 0 min 0 min 142 W/m 14,6 km/h (3 Bft) 97,83 %
01.09.2016 17:52 23,8 C 24,4 C 22,8 C 69 % 0 lf 1021,1 hPa 0,0 l/m 0 min 0 min 149 W/m 16,7 km/h (3 Bft) 97,87 %
01.09.2016 17:54 23,8 C 24,4 C 22,8 C 69 % 0 lf 1021,1 hPa 0,0 l/m 0 min 0 min 153 W/m 12,6 km/h (3 Bft) 95,74 %
01.09.2016 17:56 23,8 C 24,4 C 22,8 C 68 % 0 lf 1021,1 hPa 0,0 l/m 0 min 0 min 149 W/m 12,6 km/h (3 Bft) 91,49 %
01.09.2016 17:58 23,7 C 23,9 C 22,8 C 68 % 0 lf 1021,1 hPa 0,0 l/m 0 min 0 min 139 W/m 8,4 km/h (2 Bft) 97,87 %
01.09.2016 18:00 23,7 C 23,9 C 22,8 C 68 % 0 lf 1021,1 hPa 0,0 l/m 0 min 0 min 129 W/m 12,6 km/h (3 Bft) 95,74 %
01.09.2016 18:02 23,7 C 23,9 C 22,8 C 69 % 0 lf 1021,1 hPa 0,0 l/m 0 min 0 min 122 W/m 12,6 km/h (3 Bft) 97,83 %
01.09.2016 18:04 23,6 C 23,9 C 22,8 C 69 % 0 lf 1021,1 hPa 0,0 l/m 0 min 0 min 127 W/m 6,3 km/h (2 Bft) 91,67 %
01.09.2016 18:06 23,6 C 24,4 C 22,8 C 70 % 0 lf 1021,1 hPa 0,0 l/m 0 min 0 min 160 W/m 6,3 km/h (2 Bft) 98,00 %
01.09.2016 18:08 23,6 C 24,4 C 22,8 C 70 % 0 lf 1021,1 hPa 0,0 l/m 2 min 0 min 184 W/m 6,3 km/h (2 Bft) 97,87 %
01.09.2016 18:10 23,6 C 24,4 C 22,8 C 70 % 0 lf 1021,0 hPa 0,0 l/m 2 min 0 min 168 W/m 6,3 km/h (2 Bft) 97,87 %
01.09.2016 18:12 23,6 C 24,4 C 22,8 C 70 % 0 lf 1021,1 hPa 0,0 l/m 2 min 0 min 173 W/m 10,5 km/h (2 Bft) 91,30 %
01.09.2016 18:14 23,6 C 24,4 C 23,3 C 70 % 0 lf 1021,1 hPa 0,0 l/m 2 min 0 min 181 W/m 8,4 km/h (2 Bft) 97,87 %
01.09.2016 18:16 23,6 C 24,4 C 23,3 C 70 % 0 lf 1021,1 hPa 0,0 l/m 2 min 0 min 168 W/m 8,4 km/h (2 Bft) 95,74 %
01.09.2016 18:18 23,6 C 24,4 C 22,8 C 70 % 0 lf 1021,1 hPa 0,0 l/m 0 min 0 min 150 W/m 8,4 km/h (2 Bft) 97,87 %
01.09.2016 18:20 23,6 C 24,4 C 22,8 C 70 % 0 lf 1021,1 hPa 0,0 l/m 0 min 0 min 139 W/m 10,5 km/h (2 Bft) 93,62 %
01.09.2016 18:22 23,6 C 24,4 C 22,8 C 70 % 0 lf 1021,1 hPa 0,0 l/m 0 min 0 min 133 W/m 8,4 km/h (2 Bft) 95,74 %
01.09.2016 18:24 23,6 C 24,4 C 22,8 C 70 % 0 lf 1021,1 hPa 0,0 l/m 2 min 0 min 177 W/m 8,4 km/h (2 Bft) 95,65 %
01.09.2016 18:26 23,6 C 24,4 C 22,8 C 71 % 0 lf 1021,1 hPa 0,0 l/m 2 min 0 min 199 W/m 12,6 km/h (3 Bft) 95,74 %
01.09.2016 18:28 23,6 C 24,4 C 22,8 C 70 % 0 lf 1021,1 hPa 0,0 l/m 2 min 0 min 187 W/m 8,4 km/h (2 Bft) 93,62 %
01.09.2016 18:30 23,6 C 24,4 C 22,8 C 70 % 0 lf 1021,1 hPa 0,0 l/m 2 min 0 min 152 W/m 6,3 km/h (2 Bft) 91,49 %
01.09.2016 18:32 23,6 C 24,4 C 22,8 C 70 % 0 lf 1021,1 hPa 0,0 l/m 2 min 0 min 134 W/m 6,3 km/h (2 Bft) 94,44 %
01.09.2016 18:34 23,6 C 24,4 C 22,2 C 70 % 0 lf 1021,1 hPa 0,0 l/m 0 min 0 min 118 W/m 14,6 km/h (3 Bft) 93,62 %
01.09.2016 18:36 23,5 C 23,9 C 21,7 C 70 % 0 lf 1021,1 hPa 0,0 l/m 2 min 0 min 164 W/m 14,6 km/h (3 Bft) 91,49 %
01.09.2016 18:38 23,5 C 24,4 C 21,7 C 69 % 0 lf 1021,0 hPa 0,0 l/m 2 min 0 min 192 W/m 10,5 km/h (2 Bft) 92,31 %
01.09.2016 18:40 23,5 C 23,9 C 21,7 C 69 % 0 lf 1021,0 hPa 0,0 l/m 2 min 0 min 177 W/m 16,7 km/h (3 Bft) 93,62 %
01.09.2016 18:42 23,5 C 23,9 C 21,7 C 69 % 0 lf 1021,0 hPa 0,0 l/m 2 min 0 min 179 W/m 8,4 km/h (2 Bft) 95,74 %
01.09.2016 18:44 23,5 C 23,9 C 22,2 C 69 % 0 lf 1021,1 hPa 0,0 l/m 2 min 0 min 139 W/m 14,6 km/h (3 Bft) 93,62 %
01.09.2016 18:46 23,4 C 23,9 C 22,2 C 69 % 0 lf 1021,1 hPa 0,0 l/m 2 min 0 min 129 W/m 12,6 km/h (3 Bft) 92,68 %
01.09.2016 18:48 23,4 C 23,9 C 22,2 C 69 % 0 lf 1021,0 hPa 0,0 l/m 2 min 0 min 114 W/m 12,6 km/h (3 Bft) 91,49 %
01.09.2016 18:50 23,4 C 23,9 C 21,7 C 69 % 0 lf 1021,1 hPa 0,0 l/m 0 min 0 min 104 W/m 14,6 km/h (3 Bft) 93,48 %
01.09.2016 18:52 23,4 C 23,9 C 21,7 C 69 % 0 lf 1021,0 hPa 0,0 l/m 0 min 0 min 100 W/m 14,6 km/h (3 Bft) 93,62 %
01.09.2016 18:54 23,4 C 23,3 C 21,7 C 70 % 0 lf 1021,0 hPa 0,0 l/m 0 min 0 min 91 W/m 8,4 km/h (2 Bft) 95,74 %
01.09.2016 18:56 23,3 C 23,3 C 21,7 C 70 % 0 lf 1021,0 hPa 0,0 l/m 0 min 0 min 85 W/m 8,4 km/h (2 Bft) 91,49 %
01.09.2016 18:58 23,3 C 23,3 C 21,1 C 70 % 0 lf 1021,0 hPa 0,0 l/m 0 min 0 min 74 W/m 16,7 km/h (3 Bft) 95,74 %
01.09.2016 19:00 23,3 C 23,3 C 21,1 C 69 % 0 lf 1021,1 hPa 0,0 l/m 0 min 0 min 64 W/m 16,7 km/h (3 Bft) 93,62 %
01.09.2016 19:02 23,2 C 22,8 C 21,1 C 69 % 0 lf 1021,1 hPa 0,0 l/m 0 min 0 min 52 W/m 14,6 km/h (3 Bft) 95,65 %
01.09.2016 19:04 23,2 C 22,8 C 21,1 C 69 % 0 lf 1021,2 hPa 0,0 l/m 0 min 0 min 45 W/m 8,4 km/h (2 Bft) 93,62 %
01.09.2016 19:06 23,2 C 22,8 C 20,6 C 69 % 0 lf 1021,1 hPa 0,0 l/m 0 min 0 min 40 W/m 10,5 km/h (2 Bft) 94,64 %
01.09.2016 19:08 23,1 C 22,8 C 20,6 C 70 % 0 lf 1021,1 hPa 0,0 l/m 0 min 0 min 39 W/m 12,6 km/h (3 Bft) 95,74 %
01.09.2016 19:10 23,1 C 22,8 C 20,6 C 70 % 0 lf 1021,1 hPa 0,0 l/m 0 min 0 min 40 W/m 14,6 km/h (3 Bft) 97,14 %
01.09.2016 19:12 23,0 C 22,8 C 20,6 C 70 % 0 lf 1021,1 hPa 0,0 l/m 0 min 0 min 43 W/m 12,6 km/h (3 Bft) 91,38 %
01.09.2016 19:14 22,9 C 22,8 C 20,6 C 70 % 0 lf 1021,1 hPa 0,0 l/m 0 min 0 min 51 W/m 10,5 km/h (2 Bft) 93,62 %
01.09.2016 19:16 22,9 C 22,8 C 20,6 C 70 % 0 lf 1021,2 hPa 0,0 l/m 0 min 0 min 63 W/m 8,4 km/h (2 Bft) 95,74 %
01.09.2016 19:18 22,9 C 22,8 C 21,1 C 70 % 0 lf 1021,1 hPa 0,0 l/m 0 min 0 min 69 W/m 10,5 km/h (2 Bft) 95,74 %
01.09.2016 19:20 22,9 C 22,8 C 21,1 C 70 % 0 lf 1021,1 hPa 0,0 l/m 2 min 0 min 74 W/m 10,5 km/h (2 Bft) 95,74 %
01.09.2016 19:22 22,8 C 22,8 C 21,1 C 70 % 0 lf 1021,1 hPa 0,0 l/m 2 min 0 min 83 W/m 10,5 km/h (2 Bft) 95,74 %
01.09.2016 19:24 22,8 C 22,8 C 21,1 C 70 % 0 lf 1021,2 hPa 0,0 l/m 2 min 0 min 83 W/m 10,5 km/h (2 Bft) 95,74 %
01.09.2016 19:26 22,8 C 22,8 C 21,1 C 70 % 0 lf 1021,2 hPa 0,0 l/m 2 min 0 min 77 W/m 12,6 km/h (3 Bft) 95,74 %
01.09.2016 19:28 22,7 C 22,8 C 20,6 C 70 % 0 lf 1021,2 hPa 0,0 l/m 2 min 0 min 61 W/m 6,3 km/h (2 Bft) 93,62 %
01.09.2016 19:30 22,7 C 22,8 C 20,6 C 71 % 0 lf 1021,2 hPa 0,0 l/m 0 min 0 min 49 W/m 8,4 km/h (2 Bft) 95,74 %
01.09.2016 19:32 22,7 C 22,2 C 20,6 C 71 % 0 lf 1021,2 hPa 0,0 l/m 0 min 0 min 43 W/m 8,4 km/h (2 Bft) 95,83 %
01.09.2016 19:34 22,7 C 22,2 C 20,6 C 71 % 0 lf 1021,2 hPa 0,0 l/m 0 min 0 min 42 W/m 6,3 km/h (2 Bft) 93,48 %
01.09.2016 19:36 22,6 C 22,2 C 20,0 C 71 % 0 lf 1021,2 hPa 0,0 l/m 0 min 0 min 40 W/m 8,4 km/h (2 Bft) 97,30 %
01.09.2016 19:38 22,6 C 22,2 C 20,0 C 71 % 0 lf 1021,2 hPa 0,0 l/m 0 min 0 min 38 W/m 10,5 km/h (2 Bft) 97,83 %
01.09.2016 19:40 22,6 C 22,2 C 20,0 C 71 % 0 lf 1021,2 hPa 0,0 l/m 0 min 0 min 33 W/m 10,5 km/h (2 Bft) 97,87 %
01.09.2016 19:42 22,6 C 22,2 C 20,0 C 72 % 0 lf 1021,2 hPa 0,0 l/m 0 min 0 min 27 W/m 12,6 km/h (3 Bft) 100,00 %
01.09.2016 19:44 22,5 C 21,7 C 20,0 C 72 % 0 lf 1021,3 hPa 0,0 l/m 0 min 0 min 25 W/m 10,5 km/h (2 Bft) 100,00 %
01.09.2016 19:46 22,4 C 21,7 C 20,0 C 71 % 0 lf 1021,3 hPa 0,0 l/m 0 min 0 min 28 W/m 8,4 km/h (2 Bft) 95,74 %
01.09.2016 19:48 22,4 C 21,7 C 20,0 C 72 % 0 lf 1021,3 hPa 0,0 l/m 0 min 0 min 33 W/m 8,4 km/h (2 Bft) 97,87 %
01.09.2016 19:50 22,4 C 21,7 C 20,0 C 72 % 0 lf 1021,3 hPa 0,0 l/m 2 min 0 min 33 W/m 8,4 km/h (2 Bft) 100,00 %
01.09.2016 19:52 22,3 C 21,7 C 20,0 C 72 % 0 lf 1021,3 hPa 0,0 l/m 0 min 0 min 24 W/m 6,3 km/h (2 Bft) 100,00 %
01.09.2016 19:54 22,3 C 21,7 C 20,0 C 72 % 0 lf 1021,3 hPa 0,0 l/m 0 min 0 min 21 W/m 4,2 km/h (1 Bft) 100,00 %
01.09.2016 19:56 22,3 C 21,7 C 19,4 C 72 % 0 lf 1021,3 hPa 0,0 l/m 0 min 0 min 20 W/m 8,4 km/h (2 Bft) 97,87 %
01.09.2016 19:58 22,2 C 21,1 C 19,4 C 72 % 0 lf 1021,3 hPa 0,0 l/m 0 min 0 min 19 W/m 8,4 km/h (2 Bft) 100,00 %
01.09.2016 20:00 22,2 C 21,1 C 19,4 C 72 % 0 lf 1021,3 hPa 0,0 l/m 0 min 0 min 18 W/m 8,4 km/h (2 Bft) 100,00 %
01.09.2016 20:02 22,2 C 21,1 C 19,4 C 72 % 0 lf 1021,3 hPa 0,0 l/m 0 min 0 min 17 W/m 8,4 km/h (2 Bft) 95,74 %
01.09.2016 20:04 22,2 C 21,1 C 19,4 C 73 % 0 lf 1021,3 hPa 0,0 l/m 0 min 0 min 16 W/m 4,2 km/h (1 Bft) 95,74 %
01.09.2016 20:06 22,1 C 21,1 C 18,9 C 73 % 0 lf 1021,3 hPa 0,0 l/m 0 min 0 min 14 W/m 6,3 km/h (2 Bft) 100,00 %
01.09.2016 20:08 22,1 C 21,1 C 18,9 C 73 % 0 lf 1021,3 hPa 0,0 l/m 0 min 0 min 16 W/m 6,3 km/h (2 Bft) 100,00 %
01.09.2016 20:10 22,1 C 20,6 C 18,9 C 73 % 0 lf 1021,3 hPa 0,0 l/m 0 min 0 min 16 W/m 4,2 km/h (1 Bft) 100,00 %
01.09.2016 20:12 22,1 C 20,6 C 18,3 C 73 % 0 lf 1021,3 hPa 0,0 l/m 0 min 0 min 16 W/m 6,3 km/h (2 Bft) 100,00 %
01.09.2016 20:14 22,0 C 20,6 C 18,3 C 73 % 0 lf 1021,3 hPa 0,0 l/m 0 min 0 min 16 W/m 8,4 km/h (2 Bft) 97,87 %
01.09.2016 20:16 21,9 C 20,6 C 18,3 C 73 % 0 lf 1021,3 hPa 0,0 l/m 0 min 0 min 15 W/m 6,3 km/h (2 Bft) 100,00 %
01.09.2016 20:18 21,9 C 20,6 C 18,3 C 73 % 0 lf 1021,3 hPa 0,0 l/m 0 min 0 min 12 W/m 8,4 km/h (2 Bft) 97,87 %
01.09.2016 20:20 21,9 C 20,6 C 18,3 C 73 % 0 lf 1021,3 hPa 0,0 l/m 0 min 0 min 11 W/m 2,1 km/h (1 Bft) 97,87 %
01.09.2016 20:22 21,8 C 20,6 C 18,3 C 73 % 0 lf 1021,3 hPa 0,0 l/m 0 min 0 min 10 W/m 2,1 km/h (1 Bft) 95,65 %
01.09.2016 20:24 21,8 C 20,0 C 18,3 C 73 % 0 lf 1021,3 hPa 0,0 l/m 0 min 0 min 9 W/m 6,3 km/h (2 Bft) 97,87 %
01.09.2016 20:26 21,7 C 20,0 C 17,8 C 73 % 0 lf 1021,3 hPa 0,0 l/m 0 min 0 min 9 W/m 0,0 km/h (0 Bft) 97,87 %
01.09.2016 20:28 21,7 C 20,0 C 17,8 C 73 % 0 lf 1021,3 hPa 0,0 l/m 0 min 0 min 9 W/m 0,0 km/h (0 Bft) 95,74 %
01.09.2016 20:30 21,7 C 20,0 C 17,8 C 73 % 0 lf 1021,3 hPa 0,0 l/m 0 min 0 min 7 W/m 0,0 km/h (0 Bft) 97,87 %
01.09.2016 20:32 21,6 C 20,0 C 17,2 C 73 % 0 lf 1021,3 hPa 0,0 l/m 0 min 0 min 7 W/m 0,0 km/h (0 Bft) 95,74 %
01.09.2016 20:34 21,6 C 19,4 C 17,2 C 73 % 0 lf 1021,2 hPa 0,0 l/m 0 min 0 min 0 W/m 0,0 km/h (0 Bft) 95,65 %
01.09.2016 20:36 21,5 C 19,4 C 17,2 C 73 % 0 lf 1021,3 hPa 0,0 l/m 0 min 0 min 0 W/m 0,0 km/h (0 Bft) 94,74 %
01.09.2016 20:38 21,4 C 19,4 C 17,2 C 73 % 0 lf 1021,4 hPa 0,0 l/m 0 min 0 min 0 W/m 0,0 km/h (0 Bft) 93,62 %
01.09.2016 20:40 21,4 C 19,4 C 16,7 C 73 % 0 lf 1021,4 hPa 0,0 l/m 0 min 0 min 0 W/m 0,0 km/h (0 Bft) 95,74 %
01.09.2016 20:42 21,3 C 18,9 C 16,7 C 73 % 0 lf 1021,4 hPa 0,0 l/m 0 min 0 min 0 W/m 0,0 km/h (0 Bft) 95,74 %
01.09.2016 20:44 21,3 C 18,9 C 16,7 C 73 % 0 lf 1021,4 hPa 0,0 l/m 0 min 0 min 0 W/m 0,0 km/h (0 Bft) 95,74 %
01.09.2016 20:46 21,2 C 18,9 C 16,7 C 74 % 0 lf 1021,4 hPa 0,0 l/m 0 min 0 min 0 W/m 0,0 km/h (0 Bft) 93,62 %
01.09.2016 20:48 21,2 C 18,9 C 16,7 C 74 % 0 lf 1021,4 hPa 0,0 l/m 0 min 0 min 0 W/m 0,0 km/h (0 Bft) 95,65 %
01.09.2016 20:50 21,1 C 18,9 C 16,1 C 74 % 0 lf 1021,5 hPa 0,0 l/m 0 min 0 min 0 W/m 0,0 km/h (0 Bft) 95,74 %
01.09.2016 20:52 21,0 C 18,9 C 16,1 C 74 % 0 lf 1021,4 hPa 0,0 l/m 0 min 0 min 0 W/m 0,0 km/h (0 Bft) 93,62 %
01.09.2016 20:54 21,0 C 18,9 C 16,1 C 74 % 0 lf 1021,4 hPa 0,0 l/m 0 min 0 min 0 W/m 0,0 km/h (0 Bft) 95,74 %
01.09.2016 20:56 20,9 C 18,3 C 16,1 C 74 % 0 lf 1021,4 hPa 0,0 l/m 0 min 0 min 0 W/m 0,0 km/h (0 Bft) 95,74 %
01.09.2016 20:58 20,8 C 18,3 C 16,1 C 75 % 0 lf 1021,4 hPa 0,0 l/m 0 min 0 min 0 W/m 0,0 km/h (0 Bft) 97,87 %
01.09.2016 21:00 20,8 C 18,3 C 16,1 C 75 % 0 lf 1021,4 hPa 0,0 l/m 0 min 0 min 0 W/m 0,0 km/h (0 Bft) 100,00 %
01.09.2016 21:02 20,7 C 18,3 C 16,1 C 75 % 0 lf 1021,4 hPa 0,0 l/m 0 min 0 min 0 W/m 0,0 km/h (0 Bft) 95,74 %
01.09.2016 21:04 20,6 C 18,3 C 16,1 C 75 % 0 lf 1021,4 hPa 0,0 l/m 0 min 0 min 0 W/m 0,0 km/h (0 Bft) 97,87 %
01.09.2016 21:06 20,6 C 17,8 C 15,6 C 75 % 0 lf 1021,5 hPa 0,0 l/m 0 min 0 min 0 W/m 0,0 km/h (0 Bft) 95,74 %
01.09.2016 21:08 20,5 C 17,8 C 15,6 C 75 % 0 lf 1021,5 hPa 0,0 l/m 0 min 0 min 0 W/m 0,0 km/h (0 Bft) 97,87 %
01.09.2016 21:10 20,4 C 17,8 C 15,6 C 75 % 0 lf 1021,5 hPa 0,0 l/m 0 min 0 min 0 W/m 0,0 km/h (0 Bft) 91,49 %
01.09.2016 21:12 20,3 C 17,8 C 15,6 C 76 % 0 lf 1021,5 hPa 0,0 l/m 0 min 0 min 0 W/m 0,0 km/h (0 Bft) 98,21 %
01.09.2016 21:14 20,3 C 17,8 C 15,6 C 76 % 0 lf 1021,5 hPa 0,0 l/m 0 min 0 min 0 W/m 0,0 km/h (0 Bft) 97,87 %
01.09.2016 21:16 20,2 C 17,8 C 15,6 C 76 % 0 lf 1021,5 hPa 0,0 l/m 0 min 0 min 0 W/m 0,0 km/h (0 Bft) 95,74 %
01.09.2016 21:18 20,1 C 17,8 C 15,6 C 76 % 0 lf 1021,5 hPa 0,0 l/m 0 min 0 min 0 W/m 0,0 km/h (0 Bft) 100,00 %
01.09.2016 21:20 20,1 C 17,8 C 15,6 C 77 % 0 lf 1021,5 hPa 0,0 l/m 0 min 0 min 0 W/m 0,0 km/h (0 Bft) 100,00 %
01.09.2016 21:22 20,0 C 17,8 C 15,6 C 77 % 0 lf 1021,5 hPa 0,0 l/m 0 min 0 min 0 W/m 0,0 km/h (0 Bft) 97,87 %
01.09.2016 21:24 19,9 C 17,8 C 15,0 C 77 % 1 lf 1021,5 hPa 0,0 l/m 0 min 0 min 0 W/m 0,0 km/h (0 Bft) 95,74 %
01.09.2016 21:26 19,9 C 17,2 C 15,0 C 77 % 1 lf 1021,5 hPa 0,0 l/m 0 min 0 min 0 W/m 0,0 km/h (0 Bft) 100,00 %
01.09.2016 21:28 19,8 C 17,2 C 15,0 C 77 % 1 lf 1021,5 hPa 0,0 l/m 0 min 0 min 0 W/m 0,0 km/h (0 Bft) 97,87 %
01.09.2016 21:30 19,7 C 17,2 C 15,0 C 77 % 1 lf 1021,5 hPa 0,0 l/m 0 min 0 min 0 W/m 0,0 km/h (0 Bft) 100,00 %
01.09.2016 21:32 19,7 C 17,2 C 15,0 C 78 % 1 lf 1021,6 hPa 0,0 l/m 0 min 0 min 0 W/m 0,0 km/h (0 Bft) 97,87 %
01.09.2016 21:34 19,6 C 17,2 C 15,0 C 78 % 1 lf 1021,5 hPa 0,0 l/m 0 min 0 min 0 W/m 0,0 km/h (0 Bft) 100,00 %
01.09.2016 21:36 19,6 C 17,2 C 15,0 C 78 % 1 lf 1021,6 hPa 0,0 l/m 0 min 0 min 0 W/m 0,0 km/h (0 Bft) 97,87 %
01.09.2016 21:38 19,4 C 17,2 C 15,0 C 78 % 1 lf 1021,6 hPa 0,0 l/m 0 min 0 min 0 W/m 0,0 km/h (0 Bft) 100,00 %
01.09.2016 21:40 19,4 C 17,2 C 15,0 C 78 % 1 lf 1021,5 hPa 0,0 l/m 0 min 0 min 0 W/m 0,0 km/h (0 Bft) 95,74 %
01.09.2016 21:42 19,3 C 17,2 C 15,0 C 79 % 1 lf 1021,6 hPa 0,0 l/m 0 min 0 min 0 W/m 0,0 km/h (0 Bft) 95,74 %
01.09.2016 21:44 19,3 C 17,2 C 15,0 C 79 % 1 lf 1021,6 hPa 0,0 l/m 0 min 0 min 0 W/m 0,0 km/h (0 Bft) 95,65 %
01.09.2016 21:46 19,2 C 17,2 C 15,0 C 79 % 1 lf 1021,6 hPa 0,0 l/m 0 min 0 min 0 W/m 0,0 km/h (0 Bft) 97,87 %
01.09.2016 21:48 19,2 C 16,7 C 15,0 C 79 % 1 lf 1021,6 hPa 0,0 l/m 0 min 0 min 0 W/m 0,0 km/h (0 Bft) 95,74 %
01.09.2016 21:50 19,1 C 16,7 C 15,0 C 79 % 1 lf 1021,6 hPa 0,0 l/m 0 min 0 min 0 W/m 0,0 km/h (0 Bft) 97,87 %
01.09.2016 21:52 19,1 C 16,7 C 15,0 C 79 % 1 lf 1021,6 hPa 0,0 l/m 0 min 0 min 5 W/m 0,0 km/h (0 Bft) 95,74 %
01.09.2016 21:54 19,0 C 16,7 C 15,0 C 79 % 1 lf 1021,6 hPa 0,0 l/m 0 min 0 min 5 W/m 0,0 km/h (0 Bft) 97,87 %
01.09.2016 21:56 18,9 C 16,7 C 14,4 C 79 % 1 lf 1021,6 hPa 0,0 l/m 0 min 0 min 5 W/m 0,0 km/h (0 Bft) 95,65 %
01.09.2016 21:58 18,9 C 16,7 C 14,4 C 79 % 1 lf 1021,6 hPa 0,0 l/m 0 min 0 min 5 W/m 0,0 km/h (0 Bft) 97,87 %
01.09.2016 22:00 18,8 C 16,7 C 14,4 C 79 % 1 lf 1021,6 hPa 0,0 l/m 0 min 0 min 5 W/m 0,0 km/h (0 Bft) 93,62 %
01.09.2016 22:02 18,7 C 16,7 C 14,4 C 79 % 1 lf 1021,7 hPa 0,0 l/m 0 min 0 min 5 W/m 0,0 km/h (0 Bft) 89,36 %
01.09.2016 22:04 18,7 C 16,1 C 14,4 C 80 % 1 lf 1021,7 hPa 0,0 l/m 0 min 0 min 5 W/m 0,0 km/h (0 Bft) 93,62 %
01.09.2016 22:06 18,7 C 16,1 C 14,4 C 80 % 1 lf 1021,7 hPa 0,0 l/m 0 min 0 min 0 W/m 2,1 km/h (1 Bft) 94,44 %
01.09.2016 22:08 18,6 C 16,1 C 15,0 C 80 % 1 lf 1021,6 hPa 0,0 l/m 0 min 0 min 0 W/m 4,2 km/h (1 Bft) 93,62 %
01.09.2016 22:10 18,5 C 16,1 C 15,0 C 80 % 1 lf 1021,7 hPa 0,0 l/m 0 min 0 min 0 W/m 2,1 km/h (1 Bft) 95,65 %
01.09.2016 22:12 18,4 C 16,1 C 15,0 C 80 % 1 lf 1021,7 hPa 0,0 l/m 0 min 0 min 0 W/m 2,1 km/h (1 Bft) 91,49 %
01.09.2016 22:14 18,4 C 16,1 C 15,0 C 80 % 1 lf 1021,7 hPa 0,0 l/m 0 min 0 min 0 W/m 0,0 km/h (0 Bft) 95,74 %
01.09.2016 22:16 18,3 C 16,1 C 14,4 C 80 % 1 lf 1021,7 hPa 0,0 l/m 0 min 0 min 0 W/m 0,0 km/h (0 Bft) 93,62 %
01.09.2016 22:18 18,3 C 16,1 C 14,4 C 81 % 1 lf 1021,7 hPa 0,0 l/m 0 min 0 min 0 W/m 0,0 km/h (0 Bft) 95,74 %
01.09.2016 22:20 18,3 C 16,1 C 14,4 C 81 % 1 lf 1021,7 hPa 0,0 l/m 0 min 0 min 0 W/m 0,0 km/h (0 Bft) 95,74 %
01.09.2016 22:22 18,2 C 16,1 C 14,4 C 81 % 1 lf 1021,7 hPa 0,0 l/m 0 min 0 min 0 W/m 0,0 km/h (0 Bft) 91,30 %
01.09.2016 22:24 18,1 C 16,1 C 14,4 C 81 % 1 lf 1021,7 hPa 0,0 l/m 0 min 0 min 0 W/m 0,0 km/h (0 Bft) 91,49 %
01.09.2016 22:26 18,1 C 16,1 C 14,4 C 81 % 1 lf 1021,7 hPa 0,0 l/m 0 min 0 min 0 W/m 0,0 km/h (0 Bft) 93,62 %
01.09.2016 22:28 18,1 C 16,1 C 13,9 C 81 % 1 lf 1021,7 hPa 0,0 l/m 0 min 0 min 0 W/m 0,0 km/h (0 Bft) 91,49 %
01.09.2016 22:30 18,0 C 16,1 C 13,9 C 81 % 1 lf 1021,7 hPa 0,0 l/m 0 min 0 min 0 W/m 0,0 km/h (0 Bft) 93,62 %
01.09.2016 22:32 17,9 C 15,6 C 13,9 C 82 % 1 lf 1021,7 hPa 0,0 l/m 0 min 0 min 0 W/m 2,1 km/h (1 Bft) 93,62 %
01.09.2016 22:34 17,9 C 15,6 C 13,9 C 82 % 1 lf 1021,7 hPa 0,0 l/m 0 min 0 min 0 W/m 0,0 km/h (0 Bft) 91,30 %
01.09.2016 22:36 17,8 C 15,6 C 13,9 C 82 % 1 lf 1021,6 hPa 0,0 l/m 0 min 0 min 0 W/m 2,1 km/h (1 Bft) 89,36 %
01.09.2016 22:38 17,8 C 15,6 C 13,9 C 82 % 1 lf 1021,7 hPa 0,0 l/m 0 min 0 min 0 W/m 2,1 km/h (1 Bft) 95,74 %
01.09.2016 22:40 17,8 C 15,6 C 13,9 C 82 % 1 lf 1021,7 hPa 0,0 l/m 0 min 0 min 0 W/m 0,0 km/h (0 Bft) 95,74 %
01.09.2016 22:42 17,7 C 15,6 C 13,9 C 83 % 1 lf 1021,7 hPa 0,0 l/m 0 min 0 min 0 W/m 0,0 km/h (0 Bft) 95,74 %
01.09.2016 22:44 17,7 C 15,6 C 13,9 C 83 % 1 lf 1021,7 hPa 0,0 l/m 0 min 0 min 0 W/m 0,0 km/h (0 Bft) 95,74 %
01.09.2016 22:46 17,6 C 15,6 C 13,9 C 83 % 1 lf 1021,7 hPa 0,0 l/m 0 min 0 min 0 W/m 0,0 km/h (0 Bft) 91,30 %
01.09.2016 22:48 17,6 C 15,6 C 13,9 C 83 % 1 lf 1021,6 hPa 0,0 l/m 0 min 0 min 0 W/m 0,0 km/h (0 Bft) 93,62 %
01.09.2016 22:50 17,5 C 15,6 C 13,9 C 83 % 1 lf 1021,7 hPa 0,0 l/m 0 min 0 min 0 W/m 0,0 km/h (0 Bft) 95,74 %
01.09.2016 22:52 17,5 C 15,6 C 13,9 C 83 % 1 lf 1021,7 hPa 0,0 l/m 0 min 0 min 0 W/m 0,0 km/h (0 Bft) 93,62 %
01.09.2016 22:54 17,4 C 15,0 C 13,9 C 83 % 1 lf 1021,6 hPa 0,0 l/m 0 min 0 min 0 W/m 4,2 km/h (1 Bft) 93,62 %
01.09.2016 22:56 17,4 C 15,6 C 13,9 C 83 % 1 lf 1021,6 hPa 0,0 l/m 0 min 0 min 0 W/m 2,1 km/h (1 Bft) 97,83 %
01.09.2016 22:58 17,3 C 15,0 C 13,9 C 83 % 1 lf 1021,6 hPa 0,0 l/m 0 min 0 min 0 W/m 2,1 km/h (1 Bft) 97,87 %
01.09.2016 23:00 17,3 C 15,0 C 13,9 C 83 % 1 lf 1021,6 hPa 0,0 l/m 0 min 0 min 0 W/m 0,0 km/h (0 Bft) 95,74 %
01.09.2016 23:02 17,2 C 15,0 C 13,3 C 83 % 1 lf 1021,6 hPa 0,0 l/m 0 min 0 min 0 W/m 0,0 km/h (0 Bft) 97,87 %
01.09.2016 23:04 17,2 C 15,0 C 13,3 C 83 % 1 lf 1021,6 hPa 0,0 l/m 0 min 0 min 0 W/m 0,0 km/h (0 Bft) 95,74 %
01.09.2016 23:06 17,2 C 15,0 C 13,3 C 83 % 1 lf 1021,6 hPa 0,0 l/m 0 min 0 min 0 W/m 0,0 km/h (0 Bft) 98,08 %
01.09.2016 23:08 17,1 C 15,0 C 13,3 C 83 % 1 lf 1021,5 hPa 0,0 l/m 0 min 0 min 0 W/m 0,0 km/h (0 Bft) 95,74 %
01.09.2016 23:10 17,1 C 15,0 C 13,3 C 84 % 1 lf 1021,6 hPa 0,0 l/m 0 min 0 min 0 W/m 0,0 km/h (0 Bft) 95,74 %
01.09.2016 23:12 17,0 C 15,0 C 13,3 C 84 % 1 lf 1021,6 hPa 0,0 l/m 0 min 0 min 0 W/m 0,0 km/h (0 Bft) 100,00 %
01.09.2016 23:14 17,0 C 15,0 C 13,3 C 84 % 1 lf 1021,6 hPa 0,0 l/m 0 min 0 min 0 W/m 0,0 km/h (0 Bft) 95,74 %
01.09.2016 23:16 16,9 C 15,0 C 13,3 C 84 % 1 lf 1021,6 hPa 0,0 l/m 0 min 0 min 0 W/m 0,0 km/h (0 Bft) 97,56 %
01.09.2016 23:18 16,9 C 15,0 C 13,3 C 84 % 1 lf 1021,5 hPa 0,0 l/m 0 min 0 min 0 W/m 0,0 km/h (0 Bft) 100,00 %
01.09.2016 23:20 16,8 C 15,6 C 13,3 C 84 % 1 lf 1021,5 hPa 0,0 l/m 0 min 0 min 0 W/m 0,0 km/h (0 Bft) 100,00 %
01.09.2016 23:22 16,8 C 15,6 C 13,3 C 84 % 1 lf 1021,5 hPa 0,0 l/m 0 min 0 min 0 W/m 0,0 km/h (0 Bft) 95,74 %
01.09.2016 23:24 16,8 C 15,0 C 13,3 C 84 % 2 lf 1021,5 hPa 0,0 l/m 0 min 0 min 0 W/m 0,0 km/h (0 Bft) 97,87 %
01.09.2016 23:26 16,7 C 15,0 C 13,3 C 84 % 2 lf 1021,5 hPa 0,0 l/m 0 min 0 min 0 W/m 0,0 km/h (0 Bft) 95,74 %
01.09.2016 23:28 16,7 C 15,0 C 13,3 C 84 % 2 lf 1021,5 hPa 0,0 l/m 0 min 0 min 0 W/m 0,0 km/h (0 Bft) 97,87 %
01.09.2016 23:30 16,7 C 15,0 C 13,3 C 84 % 2 lf 1021,5 hPa 0,0 l/m 0 min 0 min 0 W/m 0,0 km/h (0 Bft) 93,48 %
01.09.2016 23:32 16,6 C 14,4 C 13,3 C 85 % 2 lf 1021,4 hPa 0,0 l/m 0 min 0 min 0 W/m 0,0 km/h (0 Bft) 97,56 %
01.09.2016 23:34 16,6 C 14,4 C 13,3 C 85 % 2 lf 1021,5 hPa 0,0 l/m 0 min 0 min 0 W/m 0,0 km/h (0 Bft) 97,87 %
01.09.2016 23:36 16,6 C 14,4 C 13,3 C 85 % 2 lf 1021,5 hPa 0,0 l/m 0 min 0 min 0 W/m 0,0 km/h (0 Bft) 98,21 %
01.09.2016 23:38 16,5 C 14,4 C 12,8 C 85 % 2 lf 1021,5 hPa 0,0 l/m 0 min 0 min 0 W/m 0,0 km/h (0 Bft) 95,74 %
01.09.2016 23:40 16,4 C 14,4 C 12,8 C 85 % 2 lf 1021,5 hPa 0,0 l/m 0 min 0 min 0 W/m 0,0 km/h (0 Bft) 97,83 %
01.09.2016 23:42 16,4 C 14,4 C 12,8 C 85 % 2 lf 1021,5 hPa 0,0 l/m 0 min 0 min 0 W/m 0,0 km/h (0 Bft) 93,62 %
01.09.2016 23:44 16,4 C 14,4 C 12,8 C 85 % 2 lf 1021,5 hPa 0,0 l/m 0 min 0 min 0 W/m 0,0 km/h (0 Bft) 89,36 %
01.09.2016 23:46 16,3 C 14,4 C 12,8 C 85 % 2 lf 1021,5 hPa 0,0 l/m 0 min 0 min 0 W/m 0,0 km/h (0 Bft) 97,87 %
01.09.2016 23:48 16,3 C 14,4 C 12,8 C 86 % 2 lf 1021,5 hPa 0,0 l/m 0 min 0 min 0 W/m 0,0 km/h (0 Bft) 97,87 %
01.09.2016 23:50 16,3 C 14,4 C 12,8 C 86 % 2 lf 1021,5 hPa 0,0 l/m 0 min 0 min 0 W/m 0,0 km/h (0 Bft) 95,74 %
01.09.2016 23:52 16,2 C 14,4 C 12,8 C 86 % 2 lf 1021,5 hPa 0,0 l/m 0 min 0 min 0 W/m 0,0 km/h (0 Bft) 91,30 %
01.09.2016 23:54 16,2 C 14,4 C 12,8 C 86 % 2 lf 1021,5 hPa 0,0 l/m 0 min 0 min 0 W/m 0,0 km/h (0 Bft) 95,74 %
01.09.2016 23:56 16,1 C 13,9 C 12,8 C 86 % 2 lf 1021,5 hPa 0,0 l/m 0 min 0 min 5 W/m 0,0 km/h (0 Bft) 93,62 %
01.09.2016 23:58 16,1 C 14,4 C 12,8 C 86 % 2 lf 1021,5 hPa 0,0 l/m 0 min 0 min 0 W/m 0,0 km/h (0 Bft) 95,74 %
_ Min-Zeit 06:16 06:12 06:08 15:26 09:14 00:00 - - - - 00:00 16:04
Minimum _ 14,2 C 13,3 C 11,7 C 61 % 0 lf 1019,8 hPa - - - - 0,0 km/h (0 Bft) 87,23 %
_ Max-Zeit 15:16 13:24 15:02 08:04 06:32 10:18 00:00 07:00 00:00 15:02 16:56 00:08
Maximum _ 26,6 C 35,0 C 31,7 C 95 % 10 lf 1022,2 hPa 0,0 l/m 2 min 0 min 905 W/m 29,3 km/h
W-NW (5 Bft)
100,00 %
Durchschnitt _ 19,5 C 21,4 C 18,3 C 80 % 1 lf 1021,2 hPa #0,0 l/m #9:40 h #0 min. 357 W/m 9,4 km/h (2 Bft) 96,07 %
© 2016 W. Hausmann